GFSNIL_sfc_wetblb_000.txt.gz
Wetbulb
37.74 36.87 36.02 35.42 34.80 34.29 33.80 33.63 33.49 33.10 32.69 32.37 32.47 32.22 31.67 31.28 31.07 31.36 30.20 29.25 29.42 30.25
35.75 35.59 34.60 33.98 33.88 33.38 33.45 35.57 32.76 32.21 31.76 31.50 31.45 31.34 30.58 30.29 29.84 29.76 29.54 29.02 28.78 28.61
34.14 33.90 33.33 33.07 32.46 32.40 32.31 32.31 31.96 31.53 31.16 30.89 30.73 30.54 29.86 29.51 30.09 29.22 29.17 30.63 27.78 27.71
32.85 32.77 32.38 32.08 31.68 31.74 31.49 31.29 31.22 31.14 30.75 30.35 30.25 30.12 29.13 28.87 29.42 29.02 28.30 27.72 28.24 28.32
32.17 31.89 31.63 31.19 31.20 31.43 30.81 31.06 30.78 30.64 30.57 30.50 30.27 29.76 28.67 28.21 28.54 27.91 27.16 27.36 27.79 28.34
31.07 30.91 30.56 30.64 30.98 31.41 30.90 30.50 30.42 30.70 30.32 30.23 30.25 29.32 29.12 28.46 28.13 27.73 27.43 27.28 27.19 27.68
30.36 30.33 30.32 30.78 31.01 31.14 30.94 30.32 30.11 30.11 29.67 29.53 29.12 29.42 29.21 29.07 28.08 27.63 28.35 28.37 28.35 27.82
30.49 30.70 30.88 31.10 31.03 30.96 30.32 29.92 29.32 28.85 28.39 28.16 29.09 31.85 31.99 31.38 29.24 27.67 26.89 27.23 27.71 28.59
31.03 31.09 31.09 30.73 30.24 29.44 29.15 28.20 28.11 27.26 26.97 26.51 30.22 34.82 36.24 34.62 30.24 27.56 26.00 25.59 26.86 27.81
31.09 30.85 30.41 29.73 28.97 27.96 26.79 26.50 26.42 26.28 25.92 25.40 25.53 34.65 35.18 35.36 30.28 26.91 26.00 26.55 26.97 27.84
30.93 29.98 29.30 28.53 26.95 25.97 26.09 26.01 25.99 25.51 25.25 24.51 27.04 33.42 34.12 34.57 27.91 25.78 25.57 26.58 26.54 26.29
30.10 28.92 27.75 26.23 25.35 25.90 25.63 25.02 24.55 25.35 24.46 23.27 23.72 31.91 33.09 32.04 27.29 26.65 25.84 26.47 26.69 27.65
28.22 27.31 26.05 25.08 24.85 25.13 24.21 24.54 25.29 24.84 24.02 26.90 22.91 29.32 32.41 31.61 27.96 25.18 25.66 26.09 27.51 31.50
27.00 26.05 25.39 24.53 24.14 23.41 23.10 23.49 22.36 22.45 22.21 22.20 23.47 24.34 32.02 32.53 29.01 27.50 27.06 27.32 27.78 28.02

GFSNIL_sfc_wetblb_003.txt.gz
Wetbulb
39.18 38.15 36.86 35.94 34.92 33.95 33.41 33.09 32.76 32.18 31.67 31.30 31.27 30.85 30.19 29.96 29.63 29.81 28.62 27.67 27.63 28.39
35.97 35.72 34.69 33.76 33.49 33.01 32.84 34.47 31.94 31.35 30.89 30.42 30.39 30.20 29.48 29.22 28.72 28.43 28.19 27.75 27.38 26.91
33.97 33.68 33.22 32.96 32.28 32.12 31.68 31.61 31.17 30.59 30.18 30.03 29.87 29.52 28.82 28.46 28.92 28.04 28.25 29.41 26.89 26.47
32.47 32.38 32.05 31.59 31.22 31.16 30.94 30.80 30.52 30.25 29.91 29.48 29.17 28.97 28.10 27.86 28.78 27.95 27.42 27.16 26.87 27.28
31.69 31.43 30.94 30.67 30.62 30.91 30.28 30.36 29.99 29.77 29.52 29.23 29.14 28.51 27.53 27.20 27.53 27.14 26.56 26.72 26.64 27.24
30.71 30.55 30.08 30.11 30.46 30.76 30.21 29.63 29.41 29.13 28.50 28.56 28.76 27.97 27.69 27.57 27.55 27.13 26.79 26.55 25.97 26.57
30.13 30.04 29.95 30.23 30.36 30.35 29.73 28.83 28.25 28.18 28.30 28.16 27.84 28.08 28.36 28.70 27.62 26.93 27.72 27.47 27.16 26.88
30.01 30.20 30.38 30.35 29.94 29.66 28.92 28.08 27.87 28.28 27.48 26.81 27.77 30.77 30.70 29.87 28.07 26.44 25.56 25.71 26.02 27.57
30.57 30.67 30.46 29.58 28.87 28.21 27.60 27.47 27.39 26.44 25.96 25.48 29.13 33.76 35.56 33.90 28.37 25.66 24.67 24.39 25.79 26.35
30.74 30.36 29.14 28.62 28.02 27.30 26.00 25.52 25.56 25.24 25.02 24.58 24.28 33.71 34.67 34.79 27.33 25.11 24.49 26.07 25.94 26.55
30.43 29.28 28.72 27.41 25.86 24.86 24.91 24.81 24.38 24.93 24.54 23.33 25.64 32.91 33.66 34.07 26.27 24.90 24.65 25.70 25.32 25.15
29.60 28.01 26.72 25.10 24.14 24.56 23.87 23.78 24.17 23.95 23.07 22.01 22.88 31.47 32.65 31.91 25.68 25.18 24.68 25.48 25.80 26.08
27.44 26.18 24.78 24.00 23.59 23.69 23.39 24.34 23.87 23.48 22.86 25.93 22.28 29.18 32.19 31.53 27.42 24.58 25.59 25.92 26.30 31.56
25.73 24.74 23.91 23.21 22.77 22.65 21.79 22.10 20.99 21.94 21.39 21.51 23.22 24.41 31.88 32.63 28.86 27.25 27.59 27.00 26.60 26.84

GFSNIL_sfc_wetblb_006.txt.gz
Wetbulb
39.55 38.45 36.19 35.48 34.34 33.54 32.78 32.23 31.53 31.14 30.77 30.45 30.52 30.09 29.39 29.20 28.81 28.49 27.55 26.68 26.59 27.37
37.28 36.89 35.82 33.91 33.08 32.24 32.08 33.22 30.70 30.44 30.09 29.85 29.79 29.41 28.65 28.29 27.86 27.28 27.26 26.98 26.64 26.28
34.34 33.82 32.86 32.34 31.66 31.30 30.74 30.58 30.23 29.84 29.61 29.44 29.13 28.59 27.81 27.38 27.80 27.23 27.40 28.66 26.42 25.79
32.62 32.18 31.49 30.85 30.42 30.25 29.99 29.87 29.72 29.68 29.32 28.77 28.20 27.68 26.94 26.67 27.92 27.11 26.83 26.81 26.68 26.47
32.18 31.03 30.21 29.66 29.65 30.07 29.33 29.43 29.31 29.10 28.79 28.29 28.01 27.14 26.27 26.77 27.18 26.54 26.11 26.31 25.99 26.08
30.60 29.89 29.06 29.15 29.53 29.73 29.24 28.68 28.58 28.44 27.85 27.49 27.58 27.11 26.94 26.90 26.99 26.62 26.16 25.68 25.00 25.35
29.46 29.06 28.94 29.23 29.24 29.19 28.57 28.01 27.64 27.56 27.27 27.22 26.82 27.14 27.38 28.20 27.11 26.06 26.10 25.84 25.36 25.13
29.12 29.28 29.35 29.10 28.65 28.41 28.13 27.44 27.37 26.95 26.24 25.75 26.84 29.71 29.52 29.44 27.63 25.18 24.40 24.55 25.03 26.01
29.55 29.68 29.04 28.22 27.65 27.94 27.29 26.58 26.24 25.30 24.94 24.36 28.16 32.88 35.20 33.76 27.42 25.46 24.70 23.43 24.67 25.08
29.82 29.04 28.01 27.46 27.43 27.03 25.27 24.62 24.01 23.79 23.62 23.00 23.15 32.84 34.47 34.69 27.77 25.51 24.15 25.56 25.81 26.20
29.09 27.85 27.27 26.56 25.61 24.48 23.70 23.21 23.02 22.77 22.63 22.04 24.63 32.47 33.28 33.80 26.93 24.93 24.54 25.67 24.81 24.36
28.34 27.02 26.11 24.65 23.70 23.05 22.52 22.10 21.67 22.51 21.77 21.03 22.08 31.08 32.32 31.73 25.95 25.68 25.07 25.75 25.31 25.30
27.07 25.70 23.87 23.23 22.55 22.27 21.53 22.92 23.21 23.14 22.16 25.09 21.47 28.93 31.75 31.37 27.20 24.74 25.73 26.25 26.59 30.84
24.67 23.64 22.80 21.89 21.22 20.42 20.36 21.42 20.16 21.39 20.89 21.22 23.00 24.04 31.34 32.25 28.31 26.87 27.30 26.06 26.78 27.30

GFSNIL_sfc_wetblb_009.txt.gz
Wetbulb
43.56 42.18 41.35 40.41 39.55 38.98 38.49 37.49 36.77 36.17 36.22 35.93 35.99 35.90 35.78 35.98 35.78 35.27 35.13 33.69 33.96 33.90
41.26 41.28 40.35 39.46 39.10 38.04 37.29 36.18 35.75 35.91 35.48 35.37 35.36 35.08 34.82 35.17 34.70 34.50 34.59 34.27 33.96 33.14
40.89 40.41 39.04 38.16 36.94 36.59 36.03 35.48 35.20 35.02 35.00 34.76 34.59 34.32 34.17 34.09 34.03 33.81 34.31 34.26 33.11 32.95
38.29 37.55 37.16 36.53 35.59 35.26 34.99 34.87 34.66 34.49 34.16 33.98 33.73 33.58 33.50 33.16 33.44 32.83 32.91 33.11 32.32 31.67
36.40 35.73 35.14 34.57 34.43 34.72 33.99 34.35 33.97 33.75 33.45 33.13 32.81 32.63 32.29 32.32 32.82 32.26 31.55 31.36 31.05 30.66
34.77 34.59 33.81 33.56 33.77 33.67 33.44 33.12 33.15 33.17 32.59 31.99 31.79 31.75 31.88 32.33 32.77 32.05 31.36 30.80 30.09 29.62
33.92 33.70 33.47 33.19 32.97 32.78 32.89 32.61 32.45 32.06 31.49 31.07 30.92 31.16 31.69 32.85 32.94 32.04 31.32 30.65 30.26 29.76
33.03 33.19 32.89 32.31 31.97 31.98 32.26 31.84 31.64 31.03 30.36 30.24 30.69 31.67 33.68 34.23 33.21 31.82 30.63 30.48 30.24 30.48
32.70 32.53 31.64 31.39 31.13 31.34 30.95 30.74 30.45 29.58 29.19 29.04 29.89 32.61 35.09 34.91 33.27 31.69 30.18 29.43 30.26 30.44
32.29 31.14 30.65 30.54 30.66 30.11 29.54 29.55 28.80 28.59 28.30 27.88 28.17 32.81 34.36 34.45 32.80 30.90 30.31 30.18 30.10 29.88
31.07 29.90 29.70 29.78 29.33 28.90 28.80 28.26 28.01 27.58 27.17 27.08 28.00 32.16 33.08 33.52 31.87 30.83 30.52 30.46 30.14 29.44
30.31 29.19 29.14 28.40 28.01 27.81 27.74 27.24 26.71 27.09 26.72 26.35 27.78 30.88 32.00 32.26 30.84 30.09 30.04 30.42 30.36 29.90
29.63 28.87 27.91 27.51 27.05 26.40 26.51 26.81 27.10 26.77 26.79 27.22 26.62 29.29 31.47 31.77 30.35 29.14 29.16 30.21 30.38 31.10
27.99 27.07 26.84 26.26 25.94 25.37 25.53 25.40 25.03 25.84 26.45 26.59 27.17 27.91 30.97 31.80 30.32 29.42 29.33 28.77 29.08 29.60

GFSNIL_sfc_wetblb_012.txt.gz
Wetbulb
45.71 47.16 45.42 46.16 46.41 45.74 44.80 43.71 42.82 42.19 41.66 41.01 40.70 40.54 40.72 41.09 40.95 40.35 39.77 38.31 38.45 37.99
46.42 46.88 46.20 45.58 46.84 45.70 44.32 42.09 41.69 41.37 40.59 40.39 39.99 39.77 39.88 40.50 39.68 39.15 39.19 38.49 38.47 37.67
46.25 46.37 45.13 45.69 44.60 43.43 42.17 41.13 40.67 40.27 39.98 39.59 39.27 39.25 39.25 39.22 38.84 38.09 38.95 38.01 37.31 36.95
43.00 43.34 43.56 44.42 43.31 42.13 40.99 40.36 39.83 39.47 39.08 38.79 38.56 38.58 38.58 38.11 37.70 37.02 37.21 37.26 36.17 35.40
42.55 43.29 43.31 42.15 41.37 40.80 39.67 39.72 39.06 38.62 38.40 37.94 37.57 37.62 37.16 36.62 37.08 36.43 35.88 35.78 35.16 34.41
43.23 42.72 41.36 40.26 39.80 39.60 38.98 38.32 38.14 38.19 37.48 36.80 36.44 36.35 36.20 36.14 36.50 36.54 36.05 35.42 34.44 33.80
41.75 40.88 39.89 39.18 38.67 38.33 38.13 37.75 37.46 37.16 36.37 35.79 35.61 35.32 35.22 36.16 36.61 36.58 36.01 35.31 34.50 33.75
39.78 39.31 38.52 37.95 37.35 37.32 37.54 36.89 36.80 35.88 35.37 35.33 35.05 34.82 35.61 36.66 36.55 35.85 35.14 34.86 34.37 33.92
37.80 37.66 37.17 36.78 36.52 36.63 35.87 35.86 35.35 34.71 34.27 34.16 33.74 32.56 34.64 35.26 35.21 34.94 34.03 33.12 33.46 33.84
36.96 35.89 36.03 36.10 35.94 35.25 35.09 34.97 34.20 33.83 33.63 33.09 33.03 32.54 33.93 34.39 34.36 33.91 33.28 32.92 32.75 32.54
35.86 34.83 35.20 35.26 34.46 34.27 34.44 33.80 33.91 33.19 32.72 32.32 32.21 31.61 32.87 33.63 33.89 33.45 33.20 33.08 32.84 32.30
35.06 34.30 34.27 33.69 33.48 33.31 33.32 33.35 33.04 32.65 31.69 31.26 32.05 30.71 31.91 32.72 32.74 32.48 32.45 32.81 32.98 32.52
35.10 34.12 33.47 33.18 32.70 32.05 33.08 32.25 32.37 31.58 31.63 29.95 30.75 30.63 31.39 32.14 32.07 31.27 31.42 32.25 32.56 32.86
33.86 33.28 32.92 32.27 32.17 31.96 31.95 31.45 31.23 30.66 31.41 30.80 30.54 30.49 31.16 31.68 31.45 30.84 30.28 30.53 30.34 31.30

GFSNIL_sfc_wetblb_015.txt.gz
Wetbulb
54.04 51.65 48.32 45.80 44.14 44.99 44.48 45.65 45.11 44.71 44.23 43.17 42.48 42.15 42.08 41.83 41.49 40.93 40.47 39.84 39.64 39.03
51.54 48.44 47.03 46.22 45.63 46.04 46.20 45.17 44.24 43.62 42.55 42.09 41.69 41.46 41.05 40.90 40.08 39.81 40.00 39.50 39.62 38.79
47.38 46.43 46.76 46.48 46.04 45.24 44.58 43.77 42.87 42.21 41.73 41.10 40.79 40.51 40.03 40.02 39.76 38.68 39.46 39.26 37.96 37.72
45.79 47.08 45.14 45.28 44.48 43.35 43.36 42.69 41.75 41.22 40.77 40.24 39.97 39.68 39.11 38.96 38.66 38.00 38.17 38.37 37.66 36.36
44.54 44.14 44.28 43.39 43.23 43.02 41.95 41.86 40.95 40.48 39.96 39.56 38.91 38.50 37.97 37.60 38.02 37.30 36.73 36.82 36.95 35.78
42.43 42.56 42.45 42.26 41.46 41.98 41.06 40.16 39.79 39.68 39.08 38.24 37.54 37.21 37.31 36.94 36.79 37.01 37.03 36.65 35.62 34.85
41.42 41.42 40.82 40.27 41.10 40.40 39.85 39.12 39.10 38.73 37.77 37.00 36.48 36.25 36.20 36.66 36.91 37.25 37.25 36.72 36.04 34.86
41.36 41.06 40.65 40.03 39.52 39.33 39.34 38.63 38.15 37.04 36.46 36.05 35.74 35.61 34.78 36.01 36.21 35.85 35.64 35.68 35.30 34.99
39.87 39.72 38.81 38.24 37.66 38.07 37.47 36.95 36.39 35.80 35.04 34.70 34.77 33.15 34.63 35.11 34.16 34.28 34.08 33.44 33.70 34.07
38.33 37.77 37.44 37.38 37.39 36.72 36.20 36.13 35.22 34.41 34.15 33.85 34.17 32.73 33.80 34.55 33.33 33.03 33.49 33.13 32.85 32.72
37.56 36.42 36.71 36.81 36.11 35.51 35.60 34.80 34.09 33.57 33.43 33.20 33.61 31.53 32.82 33.70 32.67 32.96 33.26 33.26 32.99 32.21
36.60 36.18 35.84 35.17 34.69 34.54 34.00 33.39 33.07 33.02 32.76 32.25 32.43 31.46 31.89 32.51 31.60 31.65 31.89 33.00 32.88 32.65
36.66 35.70 34.69 34.10 33.25 33.21 33.28 32.32 32.38 32.05 32.48 31.79 30.86 32.18 31.55 32.02 30.90 30.01 30.61 31.48 31.92 33.69
35.23 34.23 33.78 32.96 32.83 32.67 32.12 31.98 31.80 31.32 32.20 31.98 31.82 30.99 31.59 31.79 30.37 29.80 29.59 29.54 29.73 30.93

GFSNIL_sfc_wetblb_018.txt.gz
Wetbulb
50.52 46.49 45.13 44.58 43.35 43.44 43.34 43.32 43.72 42.55 39.92 38.77 38.85 38.38 37.94 37.10 36.63 35.75 34.84 34.07 34.07 34.30
49.01 46.70 45.16 44.76 44.13 43.92 43.53 43.43 42.73 41.40 37.87 37.53 37.59 37.42 36.85 36.08 35.32 34.78 34.45 33.88 33.58 33.37
47.72 46.03 45.05 44.76 44.18 44.14 43.19 42.88 41.18 38.79 37.06 36.77 36.63 36.39 36.00 35.26 35.36 34.26 33.85 34.62 32.91 32.44
45.25 45.60 45.47 45.02 44.20 42.48 42.24 41.40 40.12 37.27 36.48 36.10 35.85 35.93 34.97 34.56 34.93 33.99 33.71 33.24 32.99 32.49
45.88 45.32 44.50 42.92 42.10 41.76 40.78 40.20 39.50 36.74 36.56 36.05 35.89 34.61 34.30 33.31 33.75 33.55 32.45 32.41 32.14 32.02
43.94 43.05 42.32 41.23 40.99 40.81 39.62 38.47 36.16 36.00 35.98 35.44 35.35 34.66 33.77 33.02 32.90 32.96 32.35 32.14 31.17 30.83
42.53 41.64 40.42 39.61 39.67 39.28 38.18 37.32 35.29 35.07 34.88 34.91 35.16 34.75 33.77 33.45 33.00 32.25 32.87 33.16 32.16 30.93
40.54 40.15 39.32 38.29 38.06 38.05 37.55 35.12 34.48 34.10 34.02 34.22 33.97 34.74 32.61 33.32 32.52 30.99 30.51 30.73 31.22 31.14
38.48 38.50 37.38 37.31 36.66 36.06 34.15 32.95 34.47 33.84 32.78 32.33 34.15 35.10 34.97 34.26 31.21 30.47 28.90 28.21 29.01 29.99
37.48 36.54 36.38 36.01 34.75 33.44 33.02 33.48 32.40 31.82 31.60 32.00 31.78 34.31 33.58 34.15 30.59 29.03 28.01 27.90 28.48 29.44
36.32 35.47 35.50 34.49 33.71 33.42 32.32 31.40 30.79 30.99 31.84 31.53 32.45 33.20 32.79 33.48 28.85 27.56 27.63 27.74 28.05 27.29
35.63 34.81 33.97 33.13 31.25 31.55 30.83 30.86 31.21 31.39 30.48 28.56 27.80 32.23 32.07 31.49 27.31 26.40 25.89 28.17 27.95 28.39
34.94 33.85 31.43 31.21 29.60 31.08 31.61 30.42 30.31 29.07 27.96 30.97 26.40 32.04 32.11 31.01 27.70 24.68 25.07 26.24 27.31 32.38
32.74 31.86 31.31 31.25 31.01 28.83 27.51 27.35 26.54 26.68 27.09 27.02 27.53 26.61 32.08 32.05 27.72 26.15 25.95 25.61 25.76 26.98

GFSNIL_sfc_wetblb_021.txt.gz
Wetbulb
52.90 49.16 48.02 47.84 46.98 46.16 45.28 44.85 44.56 42.83 41.77 40.98 40.27 37.39 36.67 35.85 35.25 34.49 33.92 33.20 33.27 33.50
49.73 47.48 46.17 45.68 45.48 46.05 45.14 44.83 43.80 42.10 40.98 39.95 39.24 36.58 35.90 35.04 33.95 33.51 33.33 32.89 32.88 32.61
47.80 47.06 45.53 44.03 44.52 44.51 43.88 43.73 42.12 40.64 39.46 38.42 37.86 35.54 34.97 33.66 33.60 33.21 32.81 33.42 32.07 31.42
47.24 46.03 45.23 44.26 44.19 43.93 43.77 42.27 40.63 40.14 39.11 38.07 35.61 34.36 33.90 33.47 33.46 33.00 32.69 32.29 32.09 31.78
46.50 45.71 45.08 44.32 43.77 43.45 41.62 41.38 40.26 39.49 38.19 36.90 34.75 33.66 32.83 32.64 32.70 32.25 32.14 31.97 31.38 31.24
45.11 44.72 43.81 42.53 42.01 41.78 40.59 39.49 39.47 37.90 36.44 35.58 33.75 33.02 32.22 32.27 32.26 32.75 31.89 31.29 30.33 30.19
43.61 42.28 40.85 41.00 40.16 40.06 39.65 38.43 37.13 36.67 35.65 34.14 33.56 33.40 33.03 33.58 33.04 31.84 31.72 31.29 30.85 29.93
41.11 41.09 39.89 39.62 39.07 39.02 38.91 37.34 36.12 34.78 34.10 32.61 32.78 34.22 33.48 33.75 32.07 30.73 30.25 30.30 29.79 29.80
38.43 38.43 38.32 37.92 37.42 36.25 35.29 34.71 34.12 33.50 31.82 31.30 34.67 37.05 36.61 33.99 31.27 30.80 28.68 27.28 27.92 28.40
37.29 36.74 37.80 35.96 34.58 33.85 33.03 33.05 32.46 31.94 31.71 30.95 33.12 36.09 35.30 34.70 30.59 28.00 26.58 26.90 27.14 28.20
36.22 35.92 35.50 35.48 34.34 33.19 32.19 31.71 31.08 30.46 30.52 30.69 33.40 34.96 34.11 33.92 26.71 26.47 26.44 26.64 26.25 25.55
37.04 35.67 34.62 33.22 32.79 32.87 31.74 30.04 29.39 29.66 30.23 29.19 29.38 33.43 33.02 30.53 26.60 26.30 25.47 26.67 26.69 27.46
35.51 34.56 33.15 32.46 31.06 29.94 29.81 30.06 31.08 28.20 26.72 30.79 25.10 33.01 32.45 30.37 27.26 24.78 25.04 25.68 26.72 31.26
33.85 31.92 31.05 29.78 30.24 30.28 29.27 27.54 25.16 24.76 24.31 24.61 25.78 26.22 31.98 32.25 26.68 25.93 25.45 25.31 25.48 26.46

GFSNIL_sfc_wetblb_024.txt.gz
Wetbulb
57.96 54.05 53.27 51.43 49.82 47.82 46.08 45.50 45.79 45.03 43.15 42.34 41.40 39.47 38.71 37.16 36.83 33.81 32.97 32.38 32.61 32.80
51.80 50.86 50.09 49.27 47.90 46.85 46.89 45.94 44.81 43.36 42.24 42.34 41.18 39.90 38.17 37.00 35.33 33.17 32.49 32.10 32.17 32.28
50.20 50.37 49.34 48.42 47.73 46.94 45.87 44.77 43.02 42.21 41.76 41.38 40.10 38.48 37.67 35.79 35.00 32.75 32.02 32.44 31.45 31.01
48.62 47.68 48.17 47.27 46.76 45.08 44.95 43.18 42.15 41.71 41.16 40.26 38.63 37.16 36.39 35.18 34.53 32.12 31.55 31.60 32.07 31.62
46.94 46.44 46.14 45.43 44.82 44.22 42.23 42.34 41.60 40.70 40.03 39.50 37.39 36.28 35.61 34.31 34.21 31.75 31.26 31.37 31.64 31.35
45.16 45.36 45.05 44.60 42.86 43.16 41.69 41.05 40.75 39.86 38.85 36.75 35.77 34.76 33.94 33.46 31.68 31.10 31.39 31.69 31.83 31.67
45.67 45.12 44.07 42.64 42.80 41.32 41.14 40.29 39.68 38.83 37.01 35.75 34.69 34.07 33.62 32.09 30.98 31.00 31.60 32.39 31.27 30.10
41.78 41.34 40.62 40.19 39.76 40.08 39.36 38.19 37.05 35.91 34.84 34.35 34.07 34.39 33.73 32.00 31.00 31.40 31.01 31.08 30.48 30.03
39.02 38.96 38.27 37.93 36.53 35.70 35.32 34.85 34.53 33.64 33.32 33.51 35.92 38.27 37.12 33.83 31.74 30.83 29.43 28.65 27.67 27.43
37.09 35.92 35.62 35.42 35.15 34.29 33.33 33.47 32.45 32.04 32.14 33.19 34.62 37.13 36.46 34.28 30.27 28.70 26.89 26.56 26.36 27.13
36.23 35.89 36.23 35.52 34.01 33.23 33.07 32.37 32.12 31.80 32.14 33.05 34.41 35.86 35.29 33.03 27.27 25.79 25.14 25.78 24.74 24.55
37.19 36.26 35.59 34.24 33.31 33.80 33.31 32.36 31.58 31.83 30.86 31.61 31.85 34.52 33.95 29.79 25.69 25.64 24.94 25.74 25.62 26.87
36.48 35.74 34.61 34.18 33.49 32.89 31.78 30.22 30.63 29.27 29.04 31.09 26.37 33.72 32.78 29.89 26.13 24.08 24.71 24.96 25.96 30.37
34.74 33.44 32.50 31.25 30.82 29.81 29.03 28.45 26.68 24.63 24.01 24.44 24.38 24.87 32.22 32.41 26.36 25.63 25.32 24.81 25.01 25.88

GFSNIL_sfc_wetblb_027.txt.gz
Wetbulb
59.73 57.34 55.91 53.99 53.84 52.48 50.77 49.47 46.58 46.13 45.10 43.77 42.85 41.09 40.74 39.18 36.23 36.63 35.86 34.83 34.72 32.24
58.99 54.39 53.98 53.03 52.68 52.29 50.34 47.03 45.98 44.97 42.43 43.12 42.51 40.63 40.31 39.14 36.01 36.41 34.07 34.44 34.39 31.80
55.67 53.18 51.94 49.61 48.93 47.25 46.61 46.14 44.00 43.14 42.47 42.33 41.36 40.35 39.57 37.28 35.53 34.42 34.67 34.33 33.47 31.95
49.86 49.76 48.78 48.38 46.98 45.81 45.84 45.24 43.77 43.08 42.69 41.33 39.90 39.09 37.80 37.42 35.70 34.81 34.11 33.69 32.29 32.49
47.31 46.86 46.81 47.33 45.78 44.67 44.12 43.90 43.11 42.74 41.61 40.37 39.21 38.49 36.91 36.17 35.23 34.13 33.45 33.04 32.91 32.48
45.24 45.66 45.66 44.70 44.52 44.66 42.94 43.31 42.49 41.49 39.68 37.93 37.17 36.31 35.92 35.51 34.24 33.78 33.09 32.45 31.54 31.04
44.25 44.68 44.87 44.88 44.03 43.05 42.42 41.44 40.12 38.09 36.88 36.10 35.53 34.99 34.44 33.93 32.84 32.52 32.41 32.14 31.57 31.07
43.05 43.44 43.94 41.89 41.04 40.80 39.89 37.94 36.48 35.99 35.73 35.32 35.39 35.42 34.03 33.65 32.65 31.57 30.98 31.09 30.77 30.20
39.96 39.34 38.40 36.94 36.45 36.63 36.15 36.23 36.27 35.71 34.93 34.57 36.12 37.87 36.82 33.88 31.39 30.75 29.95 29.03 28.43 27.68
36.97 36.00 35.80 36.18 36.32 35.88 35.02 34.88 33.70 33.79 34.43 35.06 36.38 38.13 36.68 34.38 30.58 28.96 28.18 28.19 27.30 27.50
36.34 35.96 36.25 35.95 35.42 34.30 33.95 33.04 32.70 32.41 32.54 32.51 34.51 36.37 35.48 32.35 28.97 27.62 26.43 26.82 24.85 24.66
37.37 36.35 35.74 34.12 33.31 33.64 33.02 32.80 32.72 32.90 32.61 32.76 33.34 35.89 35.36 30.40 27.00 26.12 25.71 26.12 25.49 26.32
36.54 35.23 34.05 34.37 33.93 33.93 33.56 32.22 32.99 31.65 31.28 33.14 30.11 34.72 34.11 30.47 26.38 23.89 24.89 24.94 25.89 29.76
35.43 34.59 34.30 33.73 33.13 32.03 30.76 29.58 27.51 25.63 24.74 24.44 26.16 24.92 32.44 32.73 26.13 25.67 25.47 25.18 25.20 26.00

GFSNIL_sfc_wetblb_030.txt.gz
Wetbulb
61.36 59.50 57.79 56.16 57.04 55.91 54.41 53.26 51.90 48.43 48.28 46.52 45.10 43.91 43.84 43.32 41.08 39.65 38.66 36.62 36.15 34.72
56.56 56.14 55.55 54.67 55.65 55.58 54.32 52.98 47.99 48.41 47.56 45.58 44.38 43.20 42.83 40.53 38.98 38.13 37.14 36.07 35.28 34.89
53.48 57.63 53.95 51.63 52.03 51.90 50.78 48.20 47.61 46.31 45.17 44.69 42.90 41.42 41.09 38.60 37.91 37.06 35.35 35.77 34.48 34.15
51.78 55.00 51.17 49.65 48.80 47.29 46.31 46.04 45.02 44.70 44.02 42.96 42.16 41.00 39.36 37.43 36.69 35.70 35.41 34.85 34.51 33.51
52.81 48.46 49.00 49.18 46.08 45.53 44.00 43.58 44.11 43.22 42.48 41.02 40.26 39.02 37.55 36.64 36.42 35.66 34.73 34.12 33.93 33.23
49.20 47.86 47.22 46.73 45.50 45.40 44.48 43.97 43.74 43.33 41.31 39.73 38.91 37.68 36.96 36.40 36.08 35.65 35.45 34.73 33.70 32.71
46.32 46.64 46.20 45.08 44.19 43.53 43.30 42.29 41.42 40.03 38.91 38.19 37.64 37.06 36.53 35.36 34.24 33.81 33.36 33.06 32.38 31.84
43.83 44.77 43.43 42.28 41.48 40.80 39.48 38.17 37.67 37.26 36.96 37.10 36.85 36.80 35.61 35.08 34.35 33.46 32.00 31.72 31.24 31.06
38.45 38.84 39.17 38.31 37.73 37.35 37.03 37.21 37.31 37.15 37.25 36.92 37.34 38.86 37.77 34.26 31.95 31.40 30.49 29.77 28.92 28.91
35.99 35.64 36.27 36.75 36.69 36.50 35.97 36.14 36.12 36.91 36.47 36.61 37.45 38.68 37.26 34.96 31.16 30.15 29.09 28.70 28.24 28.76
36.51 36.18 36.37 35.88 34.92 34.51 34.69 34.57 34.12 33.88 34.40 34.66 36.90 38.02 37.22 34.91 29.90 28.91 28.68 28.59 26.92 26.41
36.95 35.68 34.90 33.73 33.29 33.07 32.60 32.73 32.57 33.32 32.87 32.30 32.79 36.85 34.49 30.65 28.44 27.72 26.97 27.15 26.48 26.89
35.12 34.24 32.60 32.46 32.11 32.81 32.73 31.95 32.33 32.06 32.30 35.49 32.67 35.86 34.57 29.94 27.37 24.92 25.07 25.02 26.38 29.48
35.20 34.11 33.16 32.42 33.02 32.13 31.18 30.36 29.60 28.43 26.86 27.25 26.94 28.47 33.56 33.77 26.05 25.36 24.99 24.87 24.84 25.85

GFSNIL_sfc_wetblb_033.txt.gz
Wetbulb
53.78 60.93 62.03 61.20 60.83 60.69 59.45 58.98 59.31 57.16 56.52 55.10 52.82 51.44 49.89 48.62 48.00 46.36 44.14 42.58 40.64 39.79
51.89 55.33 58.60 59.23 59.76 60.41 59.96 58.49 57.81 55.52 54.78 53.12 51.24 50.19 48.72 47.69 45.36 44.27 42.36 41.54 39.84 39.36
51.85 53.08 56.65 57.17 57.64 57.93 57.90 56.17 53.21 52.58 51.86 50.62 49.70 48.34 47.35 45.48 42.95 41.24 40.57 38.67 36.63 35.94
51.89 53.46 55.06 53.75 54.40 54.75 53.54 51.91 50.86 50.19 48.84 47.98 46.61 46.18 45.46 43.89 41.09 37.99 37.57 36.75 35.65 35.02
51.59 52.47 51.02 51.76 51.12 49.79 48.89 47.80 47.75 46.66 46.01 45.41 44.54 43.82 42.41 40.25 38.92 37.32 35.74 36.03 35.45 34.47
49.09 49.93 49.38 48.94 47.35 47.35 46.51 45.90 45.51 44.93 43.27 42.67 41.27 40.12 39.26 37.79 37.67 37.18 36.53 35.87 35.27 34.07
47.23 48.21 47.91 46.86 45.13 45.15 45.31 44.98 44.87 43.58 41.03 39.68 38.77 38.16 37.84 37.68 36.93 35.52 35.07 34.57 34.07 33.59
43.40 43.88 42.97 41.72 41.22 41.31 41.32 40.23 39.94 39.07 38.31 38.10 37.78 37.67 36.52 36.22 35.32 33.95 33.58 33.26 32.91 32.27
38.66 39.18 38.71 38.58 38.46 38.30 38.17 38.17 38.29 37.59 37.88 37.96 38.91 40.38 39.13 35.44 32.93 32.14 31.32 30.43 30.92 31.38
37.46 37.04 37.26 37.47 37.13 36.68 36.77 37.57 37.43 37.85 38.30 37.65 38.04 39.61 38.61 36.47 32.84 31.81 31.29 30.92 30.27 30.28
36.79 36.22 36.17 35.81 35.57 35.84 35.91 35.47 35.38 35.66 35.93 36.18 37.87 39.31 38.18 35.78 31.51 30.67 30.46 29.95 29.54 29.85
35.71 34.75 34.43 33.73 33.80 34.26 33.57 33.20 32.54 32.84 32.62 32.77 33.56 37.14 35.94 31.70 29.83 28.99 28.48 29.10 29.34 29.23
35.04 34.10 32.56 32.65 32.30 33.16 33.12 32.21 33.09 32.05 32.01 35.15 33.13 34.48 33.20 30.18 29.07 27.92 28.10 28.71 28.82 29.75
35.12 33.84 32.89 32.24 32.34 32.00 31.62 31.29 30.03 29.81 30.07 30.40 31.50 33.72 35.07 32.19 28.85 28.38 27.93 27.82 27.72 28.75

GFSNIL_sfc_wetblb_036.txt.gz
Wetbulb
55.50 55.81 57.90 62.08 62.68 63.00 62.95 63.37 63.11 61.90 61.98 61.90 61.46 60.72 59.48 57.32 54.84 53.18 51.37 49.86 47.89 45.23
55.48 55.46 56.10 58.41 60.69 61.28 62.63 62.74 63.10 62.38 61.29 60.95 60.14 59.53 58.02 56.57 55.14 53.62 52.71 50.37 47.23 43.17
54.70 55.53 56.55 57.47 58.18 58.60 60.76 61.05 60.55 60.89 60.41 59.14 57.64 55.78 54.57 53.50 53.34 51.46 48.82 47.45 42.84 39.89
54.30 55.69 55.48 55.07 54.52 54.66 56.14 57.10 57.30 57.22 56.89 56.41 53.77 52.16 51.08 50.24 48.53 46.99 43.44 41.35 39.24 36.82
53.65 54.54 54.24 52.91 53.17 53.79 53.85 54.03 53.17 52.42 52.29 52.23 51.04 49.84 48.53 47.27 45.79 43.19 41.39 40.78 39.21 37.88
51.88 53.00 53.35 52.10 51.81 51.59 50.36 49.45 48.50 48.44 48.28 48.16 48.17 47.06 46.09 43.81 42.63 39.18 38.65 37.08 37.47 36.19
48.32 49.78 49.87 49.39 48.52 48.55 48.12 47.35 46.48 46.15 45.22 43.97 43.78 42.34 39.89 39.45 38.55 37.71 37.48 36.71 36.56 36.83
45.09 45.63 45.38 44.68 44.50 43.76 43.04 42.71 41.77 40.48 39.57 39.50 39.18 38.64 38.02 37.50 36.47 36.10 35.59 34.82 34.31 34.14
42.36 42.43 41.13 41.96 41.49 41.31 41.10 41.07 39.42 38.90 38.88 39.04 39.08 40.09 39.44 37.27 36.01 34.76 33.78 31.97 32.26 32.89
39.78 39.13 38.28 38.46 38.38 37.99 38.10 38.54 38.48 38.66 39.02 38.88 39.64 41.02 39.60 37.45 34.31 32.87 32.10 31.78 31.50 32.42
38.34 36.80 36.49 36.25 35.83 35.24 35.42 35.73 35.90 35.65 37.29 37.68 38.78 39.81 38.54 36.23 32.24 31.67 31.56 31.73 32.08 31.67
36.51 35.52 35.12 34.38 34.08 34.46 33.52 33.11 32.71 33.37 33.41 32.69 33.39 37.07 36.09 32.59 31.19 29.85 29.73 31.36 31.77 31.37
35.95 34.77 33.32 33.33 32.65 33.67 33.45 32.52 33.42 32.23 32.18 34.70 32.58 33.71 33.30 32.09 31.31 30.15 30.35 30.89 31.08 30.23
35.68 34.86 34.10 33.36 34.11 33.83 33.38 32.70 32.09 31.96 31.99 33.13 34.51 34.23 33.49 32.13 31.60 31.01 30.44 29.79 29.75 30.74

GFSNIL_sfc_wetblb_039.txt.gz
Wetbulb
55.80 55.70 56.07 56.65 58.65 62.01 62.63 63.31 64.75 63.48 62.16 62.29 62.35 61.77 61.26 60.14 59.81 58.10 55.94 54.79 52.15 48.94
55.45 55.74 55.88 56.42 57.36 58.86 60.82 61.49 62.47 63.39 62.25 61.17 61.58 60.95 60.05 58.98 57.74 55.54 54.50 53.26 51.84 50.64
54.47 55.52 56.47 56.72 56.76 57.71 58.74 59.37 60.57 60.78 60.02 59.41 59.67 59.63 58.57 57.14 56.13 54.53 53.45 52.56 51.59 48.09
53.74 54.78 55.72 55.39 55.27 54.57 54.75 55.42 56.17 56.43 56.62 56.86 57.20 56.05 54.37 53.76 53.04 52.71 51.10 47.61 45.49 41.23
53.05 53.95 54.44 53.94 53.22 53.14 52.96 53.17 52.55 52.44 52.49 52.68 52.90 52.43 51.47 50.04 48.35 48.43 44.61 43.50 41.40 39.09
50.41 51.43 51.60 51.18 51.53 52.00 51.74 51.13 50.38 49.73 48.52 48.34 48.10 48.08 47.94 46.18 45.09 44.09 42.46 41.17 39.44 36.75
47.10 47.60 47.68 47.65 47.79 47.51 48.07 47.76 46.49 45.39 43.37 43.79 42.08 41.20 41.13 40.19 39.48 38.44 38.14 38.06 37.50 37.16
45.10 45.05 45.06 44.96 44.60 44.36 44.23 43.57 43.61 42.00 41.11 40.44 39.78 39.77 38.82 38.04 37.16 36.29 35.71 35.99 35.88 35.60
42.79 42.26 41.60 41.81 41.76 41.47 41.11 41.36 41.45 40.72 40.15 39.71 39.74 40.44 39.84 38.03 36.75 35.89 34.33 33.33 33.62 34.90
40.15 39.19 38.92 39.03 38.17 38.14 38.58 38.88 38.65 39.34 39.66 39.38 39.79 40.96 39.87 37.96 34.61 33.77 32.47 32.31 32.13 32.37
38.62 37.87 37.54 36.96 36.24 35.95 35.69 35.29 35.02 34.35 34.69 35.91 38.15 39.39 38.23 36.30 32.05 31.62 31.45 32.00 31.95 31.84
36.98 35.99 35.54 34.90 34.80 34.88 33.78 33.18 32.75 33.33 32.89 32.47 33.69 37.13 36.56 33.43 31.74 30.87 30.89 31.49 31.64 31.33
35.23 35.20 33.86 33.93 33.23 34.47 34.08 32.94 33.55 31.47 32.18 34.00 32.40 34.77 34.11 32.71 31.51 30.09 30.27 31.04 31.22 30.76
36.33 35.77 35.17 34.30 34.00 33.71 33.25 32.47 32.23 32.19 32.38 33.65 34.44 33.61 33.74 33.04 31.41 30.63 29.93 29.26 28.89 29.98

GFSNIL_sfc_wetblb_042.txt.gz
Wetbulb
50.80 50.76 50.77 50.93 51.34 51.76 54.34 58.06 60.14 60.66 60.13 60.04 60.68 61.99 61.55 60.65 59.82 58.27 55.90 55.12 52.25 49.58
49.75 50.49 50.86 51.30 51.87 52.23 53.70 57.01 56.65 56.94 59.22 59.03 60.94 60.86 60.33 59.94 58.86 58.59 56.60 55.60 53.78 49.94
48.84 50.41 51.32 51.74 51.45 51.82 52.20 53.22 53.34 54.41 54.90 56.18 58.28 59.11 58.59 57.58 57.15 55.47 53.70 52.61 51.41 50.20
48.17 49.94 51.01 50.78 50.25 50.70 52.29 52.83 52.65 52.53 52.03 53.81 54.22 54.95 54.06 53.43 52.76 52.24 50.97 49.06 48.61 43.14
47.37 48.36 50.20 48.15 48.14 49.96 51.10 51.11 49.75 50.00 49.74 49.72 49.94 50.63 50.06 49.43 48.41 48.78 45.78 43.74 42.17 40.42
44.30 44.43 44.93 44.19 44.54 45.48 45.83 45.21 43.94 43.13 43.55 43.76 44.23 45.22 43.65 43.41 43.60 43.46 42.89 41.72 40.15 39.27
42.01 41.82 42.21 42.43 42.40 42.54 42.04 41.25 40.34 39.80 39.05 39.08 39.03 39.76 39.40 39.66 38.75 38.30 38.17 38.15 37.91 37.44
41.29 40.71 40.47 40.46 40.38 40.55 41.05 40.62 39.70 38.65 38.53 38.97 39.65 39.31 38.09 37.56 37.21 36.43 35.91 36.15 36.51 36.49
39.93 40.32 39.75 39.95 39.87 38.56 39.16 39.73 40.41 40.15 39.90 39.50 40.12 40.77 39.97 37.04 35.32 34.98 34.27 32.82 32.91 34.21
38.97 37.72 37.62 37.53 37.05 36.96 36.59 36.59 36.43 37.70 38.60 38.52 39.15 40.32 39.24 37.26 33.58 32.55 32.24 32.19 32.19 32.80
37.28 36.48 36.47 36.16 35.61 35.12 35.02 34.52 34.26 33.91 34.59 35.73 37.70 39.39 38.16 35.95 31.75 31.62 31.64 31.76 31.70 31.34
35.45 35.36 35.21 34.60 33.97 34.23 33.42 32.81 32.42 32.68 32.60 33.07 34.30 36.98 36.13 31.61 28.09 28.95 30.09 31.58 31.97 31.55
35.77 35.08 33.67 33.82 33.20 33.73 32.73 32.09 32.33 31.71 32.34 33.43 28.09 34.84 34.33 31.90 29.93 28.10 28.77 29.14 29.26 31.52
36.22 34.74 34.20 33.73 33.22 32.97 32.02 29.79 23.25 28.31 30.65 31.59 28.81 30.34 34.88 34.22 27.54 26.04 25.76 25.32 25.46 27.20

GFSNIL_sfc_wetblb_045.txt.gz
Wetbulb
48.07 48.76 49.50 49.57 49.54 49.97 51.21 53.82 55.63 56.52 59.60 59.14 59.01 59.72 60.97 58.65 58.34 56.75 56.14 55.60 53.12 52.24
46.75 47.78 48.97 50.27 50.72 50.92 51.06 53.29 52.46 53.66 54.54 57.43 58.67 57.78 58.07 59.38 58.66 57.25 55.45 54.96 54.85 52.79
46.21 48.06 49.86 49.72 49.11 49.30 49.92 50.56 50.55 50.58 51.10 52.36 53.59 55.14 56.40 56.75 55.56 55.85 54.64 53.76 53.20 50.34
45.53 47.40 48.98 47.02 47.26 48.14 49.11 48.35 48.03 48.46 48.48 48.59 49.55 50.36 50.83 50.86 52.13 51.96 50.94 50.00 50.30 46.12
43.50 43.85 45.76 44.40 42.91 44.31 44.22 42.51 41.83 42.16 43.01 44.12 45.79 46.51 47.96 47.54 47.26 47.39 45.30 45.11 43.24 41.15
41.16 41.17 40.91 41.14 41.54 41.49 40.79 39.61 39.26 38.99 38.62 38.92 41.03 41.77 42.11 42.13 41.87 42.25 42.06 41.70 41.07 39.62
39.31 39.19 39.44 39.83 39.94 40.26 39.73 38.67 38.20 38.05 38.02 38.35 38.18 37.95 38.22 38.32 38.32 38.30 38.01 38.14 38.05 37.78
39.92 38.81 38.75 38.74 38.59 38.83 39.46 40.20 40.40 39.28 39.70 39.76 39.88 38.96 35.53 35.27 34.81 34.84 35.82 36.26 36.90 37.24
39.50 38.78 38.38 38.65 38.59 38.60 38.64 38.95 38.61 38.57 39.06 37.73 38.98 40.22 39.30 35.91 34.59 34.35 34.19 33.31 33.80 34.97
37.96 37.33 37.12 37.21 36.78 36.54 36.29 36.28 35.77 36.67 37.79 37.91 38.32 39.51 38.73 37.17 33.51 32.81 32.12 32.33 32.33 32.53
37.01 36.50 36.44 36.11 35.62 35.43 35.26 34.26 34.12 34.22 35.04 36.64 38.14 38.96 37.67 35.68 28.11 29.40 30.30 30.63 28.90 30.56
36.14 35.57 35.41 34.69 34.32 34.13 32.73 31.87 32.00 32.77 33.14 33.15 34.49 36.45 35.64 30.04 24.63 24.97 26.03 27.84 29.19 29.36
36.01 35.24 33.86 33.58 32.69 33.17 32.85 32.02 32.24 31.34 25.95 32.29 23.17 35.29 34.61 30.52 27.78 25.23 26.06 26.30 26.52 32.24
35.57 34.64 34.05 33.48 33.45 32.16 25.82 22.81 26.70 29.44 30.44 26.57 27.20 29.89 35.04 33.32 26.32 24.50 24.17 24.02 24.53 26.77

GFSNIL_sfc_wetblb_048.txt.gz
Wetbulb
45.97 46.82 48.47 49.03 49.60 49.96 50.29 51.37 52.08 53.01 54.24 55.86 57.33 57.73 57.96 57.66 57.34 57.66 56.83 56.78 54.47 54.10
45.61 46.95 48.69 48.91 48.91 48.96 49.25 51.52 50.34 50.69 51.47 52.55 53.73 55.55 56.44 57.91 57.22 55.17 54.56 54.16 55.50 53.07
45.60 48.58 48.41 47.66 46.93 47.64 47.77 47.59 47.52 47.81 48.16 48.79 50.19 51.25 52.23 54.01 54.03 53.29 53.72 53.98 53.74 52.94
43.23 44.65 44.48 43.42 43.91 44.82 42.74 42.16 41.93 43.29 44.22 44.89 45.45 46.45 47.45 47.27 47.45 48.57 49.25 47.99 49.11 47.04
41.47 41.69 41.67 40.92 40.71 41.01 39.78 39.66 39.22 39.35 39.64 40.43 41.25 41.44 42.35 43.46 43.83 45.06 44.17 43.78 43.00 41.21
39.27 39.32 39.08 39.38 39.86 39.89 39.00 38.27 38.13 38.22 37.98 38.02 38.41 38.34 38.53 39.95 40.08 40.00 39.94 40.27 40.19 39.53
37.95 38.08 38.17 38.59 38.78 39.30 38.60 37.71 37.59 37.80 37.97 37.97 36.90 36.43 36.23 36.02 35.28 36.15 37.51 37.72 37.62 37.48
39.36 38.27 38.33 37.86 38.37 38.22 37.94 37.89 38.18 37.68 37.73 37.86 38.99 38.04 34.20 34.34 34.02 34.61 35.29 35.81 37.05 38.40
38.98 38.79 38.59 38.33 38.34 37.93 37.64 37.91 38.41 38.15 37.85 38.21 38.64 39.63 38.60 35.86 34.60 34.57 34.17 33.36 33.41 34.83
38.00 37.36 37.29 37.34 36.89 36.25 35.77 36.06 35.87 36.27 37.69 38.01 38.46 39.31 38.27 36.28 33.40 32.52 31.86 31.02 29.06 31.08
37.25 36.63 36.68 36.24 35.49 34.73 34.45 34.11 34.27 34.31 34.94 36.12 37.72 38.65 37.33 34.84 26.05 24.09 22.51 23.05 21.80 22.59
36.64 35.93 35.55 34.47 33.64 33.24 32.44 32.49 32.49 33.18 33.37 32.87 28.56 35.64 34.60 27.69 19.56 21.86 22.29 25.77 26.66 26.87
36.35 35.37 33.82 33.26 32.41 33.01 32.39 32.01 28.91 23.67 21.00 31.22 20.45 35.46 34.05 29.27 26.38 24.01 24.43 24.12 24.98 32.69
35.59 34.24 33.82 33.05 32.74 29.42 27.88 28.94 29.16 29.89 30.14 24.20 26.62 28.93 34.23 32.88 26.23 24.39 24.15 24.16 24.88 26.63

GFSNIL_sfc_wetblb_051.txt.gz
Wetbulb
45.27 46.05 47.74 48.31 48.88 48.83 48.90 49.76 50.13 50.47 51.33 52.22 54.16 55.94 56.02 55.98 56.12 56.25 57.32 56.30 54.38 52.94
45.28 46.28 47.49 46.88 47.17 47.40 47.40 49.73 48.39 48.43 48.82 49.45 51.18 52.41 55.84 57.72 56.85 56.41 55.40 55.89 55.23 53.28
43.94 45.63 45.22 45.25 45.21 44.79 43.67 43.71 44.13 45.33 45.45 45.92 46.40 47.87 49.49 50.38 50.74 51.90 51.43 51.44 52.16 52.02
41.78 42.38 41.97 41.63 41.62 40.96 40.23 40.06 39.96 40.49 41.23 41.58 41.58 42.67 44.31 44.62 44.80 46.20 46.47 45.72 45.63 43.53
40.41 40.52 40.34 39.81 39.62 39.56 38.62 38.69 38.52 38.77 38.74 38.77 39.01 39.02 39.43 40.28 40.64 40.76 40.27 42.34 42.42 40.97
38.47 38.52 38.28 38.43 38.76 38.68 38.09 37.59 37.75 37.93 37.31 36.76 36.92 36.70 36.76 36.86 37.25 38.80 38.62 38.06 37.35 37.60
37.11 37.33 37.25 37.85 38.01 38.22 37.91 37.33 37.16 37.02 36.98 37.20 35.86 35.17 34.93 34.72 34.30 35.41 36.80 36.98 36.77 36.57
38.36 38.36 38.16 38.66 39.19 38.56 37.11 37.09 36.83 37.06 38.51 38.69 38.50 38.06 34.96 35.36 35.56 35.64 35.66 35.73 36.32 37.85
39.10 39.08 38.53 38.54 38.15 37.96 37.52 37.84 38.20 38.29 37.74 37.97 38.06 39.55 38.41 36.26 34.69 34.48 33.85 32.79 32.69 34.65
38.13 37.66 37.57 37.48 36.91 36.15 35.89 36.38 36.16 36.77 37.85 37.44 37.51 38.76 37.73 35.99 32.98 31.69 28.42 25.78 25.35 30.58
37.50 36.93 36.94 36.32 35.24 34.56 34.61 34.37 34.60 34.64 34.22 33.11 36.08 37.65 36.77 33.70 23.37 23.51 25.35 23.93 18.78 19.32
37.03 36.28 35.75 34.34 33.45 33.33 33.14 32.94 32.65 32.61 30.35 25.21 25.43 35.29 34.07 26.92 18.98 21.57 21.62 24.64 24.63 25.60
36.87 35.70 33.97 33.27 32.73 33.03 32.84 31.25 27.15 23.47 20.13 30.68 20.23 34.94 33.41 28.04 25.36 22.59 23.03 23.47 24.82 31.72
35.75 34.31 33.67 32.82 32.74 31.73 30.21 29.77 27.07 25.64 22.86 22.79 26.24 27.58 34.06 33.21 26.31 24.75 24.53 24.47 25.39 26.61

GFSNIL_sfc_wetblb_054.txt.gz
Wetbulb
45.28 45.86 47.29 48.06 48.37 48.02 48.12 48.70 49.09 48.80 49.13 49.72 51.38 52.99 57.52 57.82 57.76 57.45 57.19 57.11 56.01 55.24
45.09 45.83 46.61 46.08 46.43 46.39 45.43 47.43 45.77 46.11 46.31 46.92 47.85 49.66 54.60 55.37 54.75 55.80 54.89 54.62 54.88 54.13
42.79 43.72 43.84 44.29 43.22 41.77 41.16 41.28 41.44 42.08 42.56 42.73 43.48 45.52 47.40 49.59 50.76 50.42 49.21 49.83 48.01 47.04
40.89 40.99 40.80 40.26 39.61 39.26 38.94 39.13 39.28 39.70 39.83 39.82 39.68 40.62 42.32 42.60 43.76 45.64 44.26 43.61 43.07 43.04
39.37 39.38 38.94 38.47 38.29 38.32 37.68 37.96 37.97 38.04 37.71 37.58 37.70 37.45 38.02 38.56 38.78 38.81 38.43 39.05 40.66 39.73
37.32 37.11 36.69 36.93 37.34 37.66 37.37 37.11 37.52 37.16 36.24 35.72 35.77 35.41 35.29 35.30 35.76 36.35 36.00 35.59 35.06 34.95
36.36 36.66 36.48 36.96 37.15 37.50 37.03 36.33 36.17 36.68 38.18 36.81 34.69 34.97 35.55 35.90 36.20 36.64 37.04 37.84 38.51 37.63
37.55 37.56 37.93 39.30 39.07 37.83 36.82 36.33 38.11 38.30 38.52 38.51 38.55 37.17 35.98 36.35 36.32 36.17 35.31 35.32 36.46 37.48
39.36 39.25 38.87 38.71 38.34 37.99 37.79 38.15 38.60 38.12 37.80 37.78 38.22 39.24 38.49 36.29 34.33 33.39 31.94 31.70 31.60 33.91
38.39 37.97 37.84 37.56 36.94 36.29 36.23 36.71 36.55 37.03 37.34 36.30 37.16 38.33 37.37 35.67 31.20 25.78 23.78 24.05 24.21 28.61
37.72 37.28 37.09 36.27 35.29 34.97 35.19 34.88 34.78 33.61 31.06 32.02 35.48 37.15 35.79 32.53 20.57 24.39 24.91 19.29 16.50 18.13
37.33 36.63 35.95 34.56 33.76 33.93 33.60 33.21 32.33 30.18 25.99 24.25 24.63 34.99 33.65 26.04 18.17 21.35 21.09 23.62 25.00 26.04
37.21 36.12 34.36 33.56 32.88 33.29 33.00 31.54 28.71 23.96 21.67 29.90 19.76 34.21 32.68 27.45 24.70 21.88 23.06 23.48 25.41 31.68
36.36 34.83 33.74 32.98 32.88 31.91 29.16 24.13 20.56 20.86 20.75 21.78 25.32 26.51 33.97 32.88 26.00 25.07 24.69 24.79 25.33 26.51

GFSNIL_sfc_wetblb_057.txt.gz
Wetbulb
48.28 49.07 49.85 51.08 51.54 51.05 50.96 51.20 50.35 50.48 50.85 51.21 51.90 53.83 57.26 58.78 59.04 58.61 58.06 57.98 57.76 57.17
49.06 49.15 49.98 49.20 49.71 48.80 47.42 47.69 47.20 47.44 47.86 47.93 49.15 51.14 54.82 55.25 55.22 53.90 53.62 54.32 54.64 54.26
46.19 46.78 47.22 47.69 45.72 44.48 43.97 43.85 44.29 44.79 44.77 44.89 45.83 47.78 50.42 51.27 51.49 50.22 49.92 50.34 50.26 49.68
44.23 43.90 43.77 43.24 42.63 42.25 42.07 42.13 42.07 42.18 42.19 42.20 42.64 44.15 45.97 46.15 46.34 45.73 45.29 45.39 45.92 44.61
42.58 42.43 41.97 41.33 41.09 41.21 40.90 41.00 40.69 40.37 40.28 40.26 40.40 41.06 42.28 41.93 41.94 41.99 41.41 41.78 41.99 41.13
40.59 40.59 40.32 40.12 40.19 40.49 40.34 40.10 39.98 39.54 38.73 38.30 38.37 38.56 38.87 39.20 39.24 39.16 39.28 39.23 39.21 38.80
39.57 39.53 39.62 39.65 39.71 39.63 39.45 39.07 39.32 39.93 39.27 37.76 37.10 37.66 37.79 38.01 38.12 38.37 38.79 39.36 40.00 39.16
39.31 39.44 40.33 39.98 39.32 38.95 38.81 39.26 39.44 39.08 39.01 39.34 38.49 37.69 37.54 37.77 37.42 36.95 36.41 36.57 37.50 37.90
40.07 40.13 40.09 39.61 39.04 38.82 38.73 38.81 38.93 38.37 38.43 38.26 38.73 39.50 39.47 37.01 35.50 34.70 34.33 34.25 34.03 34.50
39.42 38.86 38.62 38.26 37.63 37.28 37.38 37.89 37.63 37.40 37.33 37.54 38.12 38.65 37.77 35.22 31.52 30.09 30.15 30.96 32.13 31.91
38.59 38.00 37.55 36.85 36.19 36.20 36.49 35.98 35.48 34.36 34.66 36.21 37.10 37.46 35.65 32.11 28.46 27.90 27.65 27.92 27.34 30.55
38.06 37.29 36.44 35.33 34.93 35.17 34.98 34.26 32.89 31.43 31.17 31.08 33.21 35.13 33.68 29.29 27.97 27.72 27.78 29.09 30.52 31.90
37.89 36.95 35.37 34.70 33.91 34.52 34.18 32.79 31.13 28.97 27.51 32.08 29.37 34.47 33.11 29.73 28.53 27.20 27.57 28.52 29.41 32.21
37.34 35.94 34.69 34.00 33.85 33.26 31.97 29.97 28.09 28.47 26.91 27.89 30.31 30.96 34.95 32.54 28.87 28.54 27.82 28.20 28.55 29.84

GFSNIL_sfc_wetblb_060.txt.gz
Wetbulb
53.16 54.37 54.30 54.31 55.23 55.53 55.42 55.20 54.12 53.93 54.09 54.33 54.59 55.53 57.26 58.33 59.46 60.01 60.25 59.38 59.51 58.69
53.52 53.18 53.30 53.46 54.23 54.01 52.63 51.40 51.31 51.46 51.49 51.61 52.30 53.65 55.69 57.11 57.34 56.50 55.49 54.53 54.09 52.77
52.01 52.46 52.76 52.96 51.90 50.73 50.07 49.32 49.41 49.55 49.52 49.54 50.19 51.60 53.24 53.37 52.60 52.94 52.51 52.76 51.17 50.27
50.03 50.07 50.65 50.91 49.92 49.05 48.09 47.63 47.32 47.14 47.40 47.34 47.88 49.49 51.19 49.18 48.80 48.53 48.12 48.23 47.98 47.33
48.53 48.41 48.55 48.34 47.51 47.15 46.90 46.22 45.77 45.56 45.44 45.68 45.91 47.20 48.12 47.21 47.38 47.49 46.68 46.43 46.67 45.41
46.72 46.84 46.91 46.41 46.08 45.83 45.62 45.32 44.70 44.33 43.82 43.44 43.65 44.45 44.62 44.75 44.35 44.28 43.90 43.91 43.68 42.94
45.37 45.36 45.46 45.23 44.82 44.58 44.52 44.27 44.16 43.61 42.41 41.32 40.93 41.05 41.04 41.47 41.67 41.43 41.49 41.78 41.79 41.74
44.07 43.98 43.42 42.87 43.02 43.10 43.20 42.90 42.12 41.04 40.89 40.64 40.22 39.90 39.97 39.99 39.80 39.53 38.90 39.34 39.41 39.77
43.30 43.25 42.91 42.54 41.16 40.45 40.51 40.30 40.28 40.15 39.94 39.52 39.98 40.49 40.04 39.49 38.95 38.87 38.43 37.58 37.25 37.60
42.80 41.66 41.13 40.59 39.41 38.98 39.10 39.44 38.77 38.75 39.38 38.76 39.14 39.41 38.46 37.11 36.78 35.56 34.53 35.11 35.40 34.39
41.41 40.17 39.63 38.40 37.66 37.66 37.99 37.75 37.36 37.38 38.57 38.11 37.82 37.76 35.60 33.86 33.22 32.71 32.54 32.81 33.55 34.72
40.43 39.07 37.88 36.80 36.52 36.67 36.50 35.71 35.62 35.82 35.86 36.21 36.49 35.68 33.79 32.96 33.80 32.25 32.07 32.79 33.91 34.63
40.26 38.63 37.16 36.44 35.33 36.03 35.55 34.19 34.51 33.39 34.07 34.71 35.98 34.93 33.54 32.48 32.02 30.38 30.86 31.58 32.65 32.95
39.37 38.10 36.52 35.57 35.18 34.97 34.20 33.54 33.52 32.86 32.37 32.73 34.30 34.95 33.94 32.18 31.30 31.26 30.63 31.05 31.04 32.04

GFSNIL_sfc_wetblb_063.txt.gz
Wetbulb
55.70 55.55 55.22 55.18 55.17 55.28 55.40 55.84 55.70 54.70 54.73 54.76 54.72 54.96 55.92 57.00 58.26 58.58 59.62 59.44 59.58 59.33
54.73 54.45 54.27 54.87 55.09 54.90 54.37 53.35 52.40 52.56 52.28 52.65 52.58 53.19 53.96 55.67 56.09 56.97 56.10 54.38 53.79 52.52
53.48 53.56 53.78 53.98 53.59 53.17 52.48 51.08 50.78 50.73 50.69 50.73 50.96 51.75 53.02 53.33 53.41 53.35 52.99 52.93 51.78 50.52
51.67 51.60 52.13 52.26 51.99 51.24 50.33 49.46 48.93 48.54 48.65 48.65 48.86 50.03 51.25 50.59 50.33 49.79 49.02 49.08 48.72 48.16
50.85 50.44 50.28 50.39 49.92 49.37 49.10 48.20 47.53 47.05 46.79 46.92 47.05 47.89 48.76 48.37 48.92 48.95 48.13 48.03 48.18 47.04
48.97 49.00 49.00 48.93 48.38 47.83 47.48 47.13 46.51 45.78 45.31 44.88 44.71 45.48 45.91 46.25 45.97 45.78 45.32 45.21 44.54 44.31
47.74 47.73 47.64 47.56 46.84 46.52 46.48 46.02 45.69 45.13 44.09 43.15 42.81 42.77 42.83 43.44 43.54 42.81 42.42 42.38 42.56 42.08
46.13 45.79 45.59 45.24 45.25 45.05 44.68 44.58 43.96 42.69 42.11 41.98 41.49 41.17 41.16 41.43 41.42 40.86 40.13 40.10 39.55 40.40
45.30 44.70 44.04 43.69 43.09 42.42 42.23 41.78 41.52 41.08 40.93 40.59 40.62 40.64 40.83 40.62 39.78 39.61 39.01 37.76 37.85 37.80
44.76 43.88 43.24 42.94 42.00 40.68 40.11 40.11 39.61 39.63 39.87 39.56 39.53 40.51 39.61 39.66 38.48 36.42 35.98 34.97 35.56 34.53
43.91 42.61 41.85 41.01 39.57 38.93 39.08 38.77 38.29 38.51 39.36 38.85 38.54 38.38 37.11 36.20 34.41 33.21 32.98 33.16 33.06 34.09
42.99 41.53 40.43 39.22 38.25 37.86 37.40 36.76 36.37 37.20 37.79 37.03 36.93 36.58 34.68 33.46 33.41 32.45 32.08 32.98 33.87 34.56
42.47 41.05 39.34 38.14 36.29 36.71 36.25 34.46 35.07 34.10 34.97 36.24 36.19 35.23 34.09 33.31 31.95 30.66 30.35 31.30 32.67 33.54
41.50 40.25 38.96 36.85 36.06 35.66 34.44 33.63 34.04 33.52 33.46 34.14 34.88 34.79 34.70 33.11 30.63 30.33 29.59 29.61 29.78 31.05

GFSNIL_sfc_wetblb_066.txt.gz
Wetbulb
53.14 52.49 52.05 52.43 51.95 51.15 51.11 51.62 51.60 51.34 51.36 51.37 51.59 51.63 52.36 52.97 54.03 55.25 55.09 54.31 54.62 55.74
52.06 52.03 51.10 52.17 51.28 50.87 50.11 50.04 48.16 49.07 48.92 49.11 49.33 49.99 50.71 51.66 52.29 53.46 52.91 53.49 52.92 52.41
51.46 51.77 51.45 51.13 50.34 49.90 48.13 47.94 47.29 47.13 47.17 47.39 47.76 48.42 48.93 49.89 51.19 51.62 51.21 51.47 50.95 50.12
48.81 49.73 50.06 50.04 48.88 47.99 46.97 46.35 45.99 45.72 45.52 45.37 45.24 45.84 46.67 49.43 49.28 49.25 48.50 48.29 47.98 47.48
48.04 47.51 47.50 47.53 47.37 46.72 46.14 45.52 44.61 44.33 44.14 44.14 43.98 44.06 44.10 45.15 45.38 47.89 47.22 47.30 46.84 45.76
46.05 46.15 46.06 45.85 45.51 45.45 44.68 44.09 43.72 43.17 42.51 42.04 41.94 41.74 41.70 42.38 42.56 41.88 41.30 41.50 41.14 40.82
44.23 44.81 44.36 44.96 44.61 44.54 44.34 43.48 43.01 42.27 41.45 40.84 40.24 40.39 40.55 41.21 40.39 40.08 40.47 40.45 39.26 39.01
42.74 42.66 43.04 42.90 42.64 43.03 42.41 42.03 41.64 40.70 41.09 41.72 41.17 41.20 40.86 41.36 41.19 40.35 39.54 39.05 39.59 39.71
42.74 42.05 41.29 40.95 40.70 40.10 40.08 39.95 39.94 40.78 40.70 40.26 40.59 41.11 41.67 40.94 39.71 39.54 38.10 36.51 35.18 35.87
42.35 41.41 40.90 42.02 41.55 38.46 37.53 39.62 39.40 39.46 39.62 39.28 39.71 41.59 40.93 41.18 37.65 35.85 34.38 34.02 31.63 32.40
41.59 40.53 40.21 40.87 39.86 37.76 39.06 38.65 38.25 38.28 38.65 38.16 38.52 39.75 38.83 38.13 33.76 32.72 31.51 31.43 31.09 29.21
40.84 39.55 39.11 39.22 37.06 37.37 37.66 37.20 36.72 37.36 37.17 36.13 36.10 37.42 36.66 32.17 29.11 29.74 29.39 29.65 31.16 32.57
40.23 39.16 39.08 38.55 36.08 36.95 36.77 34.85 35.15 33.80 33.84 36.93 33.25 36.79 35.20 32.57 29.59 28.44 28.14 28.58 30.65 34.09
39.44 39.38 38.44 35.34 35.43 35.86 34.73 33.81 33.26 32.88 32.61 31.17 33.02 32.22 35.43 34.64 28.35 27.41 26.60 26.42 26.92 29.02

GFSNIL_sfc_wetblb_069.txt.gz
Wetbulb
53.37 52.54 52.48 52.33 51.66 50.76 51.47 51.70 52.22 51.74 51.07 50.22 50.23 50.04 50.42 50.62 51.51 52.53 52.94 52.76 52.89 54.53
51.60 51.36 51.10 51.72 51.92 51.00 50.34 50.22 49.23 49.15 49.19 48.32 48.30 48.62 48.95 49.24 50.29 50.83 51.51 52.63 50.76 52.43
50.88 51.23 51.30 50.34 50.62 50.31 48.57 48.33 47.41 47.24 46.97 46.45 46.51 46.99 47.28 47.95 49.07 48.77 49.04 49.68 50.40 49.92
49.55 50.18 49.77 49.01 49.04 47.68 47.29 46.90 46.37 45.73 45.18 44.75 44.40 44.54 44.77 46.26 46.88 46.99 46.65 46.31 47.66 48.17
47.83 47.85 47.34 47.30 47.17 46.95 45.19 45.36 44.92 44.23 43.83 43.62 43.37 42.82 42.83 44.42 44.15 45.92 46.77 46.75 47.00 45.92
45.50 45.43 45.87 45.54 45.84 45.44 44.15 43.31 43.16 43.24 42.69 42.01 41.54 41.16 41.08 41.65 41.54 40.80 40.79 42.22 42.23 42.53
43.47 43.62 43.20 43.38 43.76 43.48 43.39 42.80 42.05 41.48 40.97 40.49 40.17 40.34 40.39 40.48 39.23 39.09 39.17 38.93 38.71 38.59
42.42 42.16 41.88 41.76 41.64 41.57 41.44 41.10 40.54 39.93 40.18 40.37 40.15 40.71 39.64 41.28 41.18 40.47 39.53 39.64 39.72 39.29
41.67 41.28 40.72 40.30 39.74 39.57 39.34 38.78 38.87 38.91 40.34 40.26 40.69 41.74 42.09 41.67 40.30 39.64 38.26 36.95 36.49 36.93
41.26 40.52 39.90 39.85 38.92 37.56 36.60 36.85 36.88 38.05 39.79 39.36 40.14 42.10 42.15 41.94 38.31 36.63 35.15 33.63 31.88 32.26
40.93 39.94 39.48 38.91 38.16 39.28 35.67 35.62 35.52 37.21 38.85 38.08 39.14 41.24 40.83 39.35 34.64 33.48 33.08 31.36 28.43 27.19
40.62 39.25 38.25 37.47 37.15 37.93 34.97 35.50 36.96 37.90 37.56 36.40 37.12 39.15 39.01 34.30 30.82 28.47 27.28 29.26 31.17 32.10
40.18 39.02 37.14 36.78 37.53 36.15 35.95 35.73 36.12 34.20 34.77 37.23 34.79 38.04 36.63 32.06 28.88 27.07 27.54 28.32 29.66 35.42
39.13 37.78 36.63 36.55 36.79 35.09 34.91 34.72 33.82 33.50 33.40 34.29 34.55 33.77 36.56 35.52 29.14 27.76 27.17 26.92 27.63 29.09

GFSNIL_sfc_wetblb_072.txt.gz
Wetbulb
58.00 55.54 55.69 55.48 54.81 54.70 54.25 54.43 54.38 52.95 51.82 51.09 51.29 51.09 50.55 50.24 50.28 50.38 50.81 51.05 51.40 52.39
53.78 53.36 52.85 53.01 51.96 51.88 51.15 51.83 51.84 51.15 50.37 49.10 48.80 48.42 48.44 48.43 48.28 49.71 50.21 50.72 51.58 52.39
49.55 50.26 51.55 51.99 51.38 50.72 49.09 48.45 47.87 47.33 47.03 47.25 47.14 47.15 47.30 46.39 47.52 47.65 48.46 48.64 47.90 47.45
49.14 50.02 49.78 49.33 49.10 48.28 47.28 46.62 46.24 46.03 45.50 45.24 45.12 44.67 44.18 44.55 46.50 46.18 45.94 45.43 45.55 46.46
48.16 48.60 47.71 47.93 48.12 46.58 45.93 45.67 45.58 44.43 44.14 43.52 43.57 42.91 43.08 43.56 45.43 44.81 44.91 45.48 44.82 44.75
45.41 45.34 45.25 45.11 44.77 44.76 44.12 43.72 43.48 43.41 42.60 41.92 41.44 41.46 41.28 41.61 41.96 41.22 41.21 42.06 43.67 43.02
43.39 43.61 43.51 43.52 43.13 42.89 42.77 42.03 41.43 40.96 40.38 40.52 40.02 39.89 39.60 39.75 38.74 38.60 38.50 38.63 38.78 39.73
42.83 42.48 42.24 41.95 41.75 41.56 41.35 41.16 40.38 39.52 39.22 39.18 39.37 39.85 38.39 39.52 39.75 40.36 39.78 39.83 39.41 39.07
41.74 41.16 40.80 40.24 39.67 39.26 38.81 38.47 38.44 38.14 38.45 38.34 40.15 42.46 42.61 41.98 40.74 40.25 39.04 37.69 37.06 37.65
40.98 40.34 39.54 39.23 38.44 37.40 36.59 36.28 36.30 36.57 37.45 37.48 39.59 42.34 42.58 42.99 39.59 37.95 36.55 35.27 33.99 34.29
40.50 39.63 38.89 38.16 37.20 35.87 35.03 34.99 34.78 35.28 36.17 36.66 39.06 42.68 41.89 41.19 35.53 34.11 33.51 33.11 32.01 26.45
40.38 38.88 38.01 37.08 36.13 35.65 34.93 33.93 34.22 35.26 35.67 36.80 37.56 41.43 41.03 37.04 33.48 33.20 32.43 31.58 29.71 29.31
40.21 39.33 37.62 36.58 35.27 35.09 37.07 34.97 35.52 33.95 35.12 37.88 35.92 39.87 39.57 35.07 31.35 29.78 28.41 29.50 30.71 36.19
39.36 38.50 37.41 35.63 34.69 34.65 36.44 35.40 34.58 34.22 34.08 35.19 35.75 36.32 38.26 35.74 28.14 27.45 26.79 27.33 28.90 30.06

GFSNIL_sfc_wetblb_075.txt.gz
Wetbulb
59.98 59.88 59.78 58.92 58.50 57.41 56.25 55.33 55.30 54.11 52.60 52.01 51.99 51.76 50.95 50.54 49.79 49.26 49.25 49.07 49.76 50.71
55.56 56.20 54.76 54.97 55.14 53.33 53.32 54.10 53.02 51.70 50.86 49.99 49.44 48.71 48.43 48.12 47.79 47.99 48.59 49.57 49.52 50.17
49.53 51.49 52.78 52.30 50.98 51.13 51.36 51.96 50.75 49.34 48.71 48.11 47.68 46.71 46.35 46.12 47.06 47.91 47.78 48.45 47.51 46.61
47.72 48.53 49.10 49.75 49.51 47.95 47.58 47.46 47.78 47.49 46.83 45.94 45.30 44.36 43.69 44.00 44.63 45.64 45.40 45.18 45.02 45.47
47.65 47.98 48.03 48.28 48.46 47.04 46.87 46.13 46.00 45.64 44.42 43.67 43.25 42.66 42.18 42.34 43.65 44.41 44.07 44.63 44.61 44.82
45.18 45.40 45.45 45.57 45.53 45.88 44.85 44.17 43.04 42.91 42.47 42.09 41.73 41.34 40.78 40.93 41.43 40.90 40.66 40.93 42.62 42.23
43.46 43.74 43.68 43.51 43.31 43.23 42.59 41.67 41.14 41.03 40.75 40.30 39.56 39.16 38.75 38.98 38.30 37.64 37.84 38.01 38.12 40.54
42.60 42.35 42.27 42.04 41.60 41.38 41.07 40.71 40.23 39.18 38.71 38.60 38.69 39.14 37.92 38.27 37.90 38.52 39.74 39.61 39.54 39.74
42.00 41.40 40.90 40.25 39.70 39.33 38.90 38.48 38.19 37.76 37.98 37.50 39.55 42.20 43.52 42.11 40.53 40.82 39.97 38.56 38.24 38.98
41.26 40.45 39.72 39.29 38.44 37.50 36.76 36.30 36.22 36.15 36.71 36.60 36.98 42.09 43.12 43.14 40.56 39.19 37.88 36.58 35.25 35.26
40.46 39.59 38.71 37.90 37.19 35.91 35.01 35.15 34.69 34.79 35.38 35.51 37.08 41.83 43.18 42.60 36.08 34.59 34.03 34.19 33.40 33.06
40.10 38.79 37.78 36.85 35.99 34.83 34.20 33.66 33.70 34.41 34.32 34.03 34.36 40.88 42.19 37.94 33.76 33.67 33.44 32.57 31.94 30.90
40.09 39.25 37.76 36.62 35.09 34.56 34.46 34.23 33.09 33.99 33.34 36.32 35.20 40.68 41.17 38.26 33.93 32.83 32.38 31.54 31.06 34.80
39.38 38.83 37.94 35.64 34.00 34.12 34.02 34.11 35.26 34.76 34.36 34.70 36.83 36.80 40.70 39.72 30.13 30.15 29.64 28.92 27.76 28.97

GFSNIL_sfc_wetblb_078.txt.gz
Wetbulb
59.07 59.38 59.35 59.41 59.03 59.49 59.23 58.43 57.65 56.21 54.37 52.90 53.02 52.66 52.01 51.30 50.43 50.18 49.62 49.17 49.14 50.05
53.69 55.97 56.38 56.01 57.35 57.25 56.78 56.58 55.82 53.97 52.19 51.48 50.93 50.14 49.51 48.64 47.78 47.81 47.49 47.87 48.32 48.87
48.86 51.22 54.00 53.74 53.06 53.21 52.25 52.68 51.08 50.17 49.82 48.96 48.60 47.99 47.30 46.37 46.49 46.56 46.87 47.80 47.60 47.21
47.74 48.61 49.92 50.28 49.80 49.45 49.72 50.80 49.26 48.71 47.45 46.79 46.06 45.72 45.53 44.84 44.66 45.18 45.06 44.70 44.60 45.18
46.63 46.99 47.10 47.34 47.50 47.37 47.24 47.13 46.97 46.43 45.49 44.54 44.32 43.04 42.54 42.14 42.33 43.15 43.19 43.43 43.40 43.53
44.97 45.13 45.38 45.66 45.64 45.47 44.70 44.08 44.22 43.78 43.11 42.20 41.94 40.91 40.11 40.24 40.19 39.91 39.30 39.57 40.13 41.30
43.51 43.91 43.79 43.54 43.46 43.31 42.89 42.09 41.47 41.30 40.85 40.33 39.47 39.00 38.65 38.56 37.78 37.08 37.27 37.49 37.57 39.22
42.42 42.06 42.01 42.08 41.78 41.46 41.01 40.52 40.09 39.17 38.62 38.36 38.50 38.89 37.80 38.22 37.71 37.33 38.79 39.93 39.71 40.15
42.02 41.43 41.04 40.64 39.88 39.51 38.99 38.34 38.02 37.66 37.72 37.27 39.47 42.54 43.37 40.92 37.94 38.98 40.38 39.49 38.88 39.99
41.40 40.73 40.03 39.49 38.50 37.71 37.02 36.51 36.44 36.27 36.67 36.37 36.68 42.24 43.19 43.22 38.53 37.18 38.39 37.39 36.29 36.17
40.73 40.07 39.15 38.07 37.37 36.08 35.13 35.43 34.89 34.99 35.40 35.39 36.71 41.90 42.70 42.83 36.72 34.03 34.24 34.92 34.43 34.26
40.27 39.12 37.92 37.16 36.21 34.95 34.33 33.72 33.80 34.27 34.22 33.92 34.17 41.23 42.38 38.83 33.76 34.00 33.90 33.78 33.94 33.42
39.83 39.53 38.28 37.66 35.56 34.31 33.89 34.03 32.78 33.97 33.69 35.77 31.96 39.75 42.06 39.02 34.67 33.51 33.73 33.12 32.20 35.78
39.04 39.16 39.07 35.97 34.21 33.79 33.71 33.14 32.46 34.05 34.74 35.72 34.81 34.73 41.49 41.50 34.04 33.61 31.91 31.96 30.98 30.96

GFSNIL_sfc_wetblb_081.txt.gz
Wetbulb
60.14 61.40 61.49 61.21 60.95 61.14 60.83 61.06 61.03 60.54 59.37 57.61 57.34 56.83 55.99 54.73 54.22 54.22 54.50 53.73 53.58 53.69
54.83 58.09 59.13 59.42 60.38 60.25 60.00 58.54 59.26 58.86 57.58 55.54 54.57 52.70 51.89 51.38 51.40 51.69 51.70 51.86 52.20 52.14
50.74 52.05 55.99 56.80 57.20 57.34 57.23 56.98 56.09 53.50 52.47 51.34 50.97 50.89 50.12 49.96 49.77 49.97 50.19 50.78 51.16 51.47
50.10 50.24 52.11 53.76 53.60 53.95 53.81 53.98 52.96 52.09 50.71 49.73 49.07 49.18 49.03 48.44 47.57 47.92 48.48 48.88 48.95 48.86
48.82 50.08 50.47 51.13 51.31 51.28 51.53 52.02 52.28 50.91 49.17 47.95 47.35 46.88 46.83 46.02 46.20 46.84 46.79 46.76 46.91 47.06
47.57 48.23 48.64 48.74 48.61 48.55 48.47 48.56 47.86 47.67 46.67 45.45 44.66 43.63 43.50 43.41 43.10 43.38 43.15 43.38 43.88 45.07
46.06 46.83 47.03 46.72 46.51 46.15 45.65 45.13 44.95 44.85 43.87 43.25 42.52 42.32 42.12 42.01 41.96 41.76 41.72 41.82 42.15 42.82
45.15 45.30 45.42 45.37 45.21 44.68 44.44 44.03 43.61 42.81 42.41 42.15 42.02 41.39 41.67 41.69 41.75 41.75 41.65 41.89 42.05 42.13
44.13 44.52 44.33 44.15 43.45 43.10 42.70 42.19 42.02 41.92 41.71 41.42 41.19 43.09 42.99 42.16 41.81 41.63 41.77 41.80 41.39 41.58
42.88 43.25 43.19 42.98 42.24 41.84 41.48 40.93 41.10 40.78 40.82 40.72 41.72 44.19 44.55 43.94 41.79 40.97 40.75 40.40 39.72 38.21
42.30 42.37 42.63 41.78 41.40 40.78 40.23 40.36 39.94 39.67 39.91 40.34 40.16 43.35 43.93 43.85 41.86 39.03 36.36 36.95 36.86 36.80
41.48 41.43 41.33 40.73 40.44 39.84 39.05 38.74 38.50 38.42 38.40 38.45 38.98 42.56 43.28 40.85 36.46 36.55 36.36 37.42 37.30 36.44
40.81 40.87 40.69 41.37 39.21 38.44 38.20 37.50 37.58 36.35 36.53 38.08 37.83 40.89 42.74 40.77 37.31 35.70 35.56 35.63 35.02 37.42
40.13 40.06 40.35 39.65 38.35 37.89 37.52 37.12 35.68 35.67 35.56 36.45 37.33 37.93 42.06 42.38 37.14 36.59 34.82 34.91 34.15 33.33

GFSNIL_sfc_wetblb_084.txt.gz
Wetbulb
63.60 63.46 62.61 63.06 63.33 63.22 62.60 62.68 63.19 62.82 62.74 63.12 62.98 61.49 60.57 59.88 59.67 58.91 58.37 57.33 56.77 56.76
57.43 61.52 62.63 63.17 63.67 63.44 63.59 63.16 62.75 62.36 62.95 61.97 60.49 59.36 58.91 57.01 54.58 54.82 54.60 55.26 54.87 53.78
53.31 54.07 57.51 59.81 60.48 61.74 62.63 62.30 62.16 61.13 61.33 59.45 58.21 57.83 56.63 53.92 52.66 52.62 53.28 53.22 53.15 53.55
52.72 53.18 54.15 56.26 57.70 58.40 59.00 59.23 59.38 58.64 56.55 55.92 55.23 54.81 53.88 52.57 51.36 51.18 51.79 51.69 52.44 52.37
52.44 52.61 53.21 53.60 54.30 55.63 57.02 57.24 56.65 55.66 54.35 53.52 52.94 52.28 51.13 49.70 49.79 50.05 49.60 50.06 50.44 50.53
52.03 52.09 52.35 52.47 52.44 52.46 52.88 54.18 54.56 54.11 52.78 51.28 49.93 49.97 49.61 48.63 48.26 48.58 49.19 48.89 48.34 48.85
49.80 50.78 51.40 51.85 51.31 51.12 51.27 51.25 51.53 51.47 49.81 48.99 48.84 48.13 47.74 47.64 47.09 46.89 46.90 46.22 46.85 47.39
48.19 49.21 50.42 50.52 50.57 50.02 49.83 49.56 49.61 48.69 48.27 46.92 46.52 46.01 46.30 46.06 46.12 45.89 45.46 45.26 45.79 46.36
47.06 47.77 48.45 49.45 49.62 49.12 48.40 48.07 47.95 47.28 46.89 46.36 44.95 44.45 45.30 46.08 45.92 45.66 45.31 44.45 44.60 44.59
45.49 45.87 46.88 47.97 47.78 47.57 47.66 47.27 46.46 46.62 46.49 45.21 45.59 44.58 44.76 44.59 45.03 44.57 44.42 44.10 43.63 43.18
44.28 44.34 45.75 46.36 46.60 46.94 46.95 46.00 45.70 45.47 45.48 45.42 45.13 45.15 45.24 44.45 44.80 43.42 40.04 39.85 40.43 42.22
43.49 43.27 44.40 45.09 45.87 46.85 45.79 45.26 44.90 45.34 44.45 44.27 44.13 44.34 44.90 44.48 42.47 40.12 38.94 38.86 41.57 42.15
42.94 42.89 43.12 44.36 44.90 45.51 44.90 44.21 44.41 42.22 43.67 43.26 43.55 43.20 44.09 43.11 40.65 38.11 37.90 40.50 40.94 39.81
42.57 42.83 43.08 43.59 44.17 43.13 43.09 42.50 41.81 40.64 39.67 41.43 42.30 42.85 43.42 43.22 40.35 39.13 37.47 37.62 38.07 39.04

GFSNIL_sfc_wetblb_087.txt.gz
Wetbulb
62.27 62.15 61.21 61.66 61.39 61.39 61.56 61.66 62.62 62.87 62.60 63.17 62.47 61.81 61.34 60.41 59.82 59.63 59.27 59.44 59.61 58.40
60.38 62.60 62.53 62.30 62.61 62.49 62.95 63.36 63.29 63.22 62.83 62.95 62.31 61.44 60.97 59.34 59.12 59.19 59.00 58.41 56.79 55.57
53.79 54.59 57.89 61.30 62.60 62.90 63.06 63.41 62.40 62.19 62.30 62.35 61.49 60.22 59.90 57.67 57.13 56.45 55.65 55.19 53.98 53.33
53.24 53.95 54.48 55.93 58.13 59.50 60.79 61.79 60.86 60.90 61.03 59.57 58.50 58.57 57.99 56.74 55.36 54.70 53.29 53.11 53.04 52.73
53.02 53.42 53.71 53.87 54.68 56.15 57.14 58.50 59.39 59.38 58.44 57.22 56.46 56.80 56.33 54.94 53.06 52.42 51.39 51.24 51.88 51.92
51.04 52.05 52.60 52.97 53.23 53.60 54.41 55.77 56.55 56.39 55.12 54.19 53.94 53.91 53.51 51.60 50.72 50.84 50.71 50.67 50.04 50.19
48.48 49.14 51.01 52.10 52.20 51.82 52.27 52.66 53.82 54.44 53.94 52.15 50.67 50.69 49.42 49.06 49.09 49.32 48.93 48.51 48.59 48.53
47.73 48.76 49.24 50.59 51.33 51.40 50.78 50.98 51.60 51.21 50.29 49.20 48.17 47.39 47.41 47.86 47.46 46.90 46.61 46.43 46.65 47.00
46.83 47.17 47.85 48.60 49.97 50.61 49.95 49.62 49.29 48.92 48.77 47.59 46.70 46.45 47.30 47.25 46.29 46.42 45.84 44.94 45.26 45.15
45.75 45.55 46.16 47.28 48.02 48.93 49.56 49.59 48.38 48.34 47.87 47.27 46.93 45.61 46.37 46.31 46.52 45.70 45.07 43.97 43.88 43.55
44.02 44.21 45.00 45.71 46.65 47.51 48.69 48.90 48.26 47.61 47.43 46.92 46.46 45.42 45.78 45.40 45.14 44.36 42.51 41.98 42.02 42.44
42.65 42.77 43.79 44.15 44.98 46.18 46.86 47.38 47.24 47.22 46.70 45.96 45.93 45.25 45.48 44.36 42.66 39.98 38.93 39.53 40.37 42.02
41.59 41.98 41.81 42.73 42.87 43.67 44.97 45.37 46.10 44.79 45.32 45.50 44.96 44.58 45.33 44.68 42.72 39.61 38.83 40.00 40.64 42.16
40.41 40.86 41.44 41.70 42.37 42.67 43.06 43.56 43.56 43.40 42.84 43.61 44.04 44.31 44.76 45.12 42.28 39.62 38.48 38.99 39.25 40.27

GFSNIL_sfc_wetblb_090.txt.gz
Wetbulb
60.61 60.11 60.02 58.98 59.19 60.21 59.83 59.83 60.08 61.43 61.60 62.34 61.74 62.03 61.27 60.23 59.54 59.55 58.64 57.79 58.13 57.78
59.81 59.93 60.36 60.41 60.27 60.28 60.68 61.21 60.70 61.02 60.87 60.59 60.66 61.35 61.15 60.21 59.49 59.02 58.25 58.10 58.26 56.87
51.97 54.27 55.50 58.11 60.34 60.95 61.14 61.08 61.47 60.64 61.40 60.95 60.98 61.40 60.71 60.22 59.34 58.43 57.46 56.66 55.44 53.75
50.57 51.13 51.61 51.93 53.70 56.46 58.12 58.88 60.01 60.41 59.82 60.31 61.18 61.06 59.77 58.37 56.81 56.65 55.00 53.33 53.66 52.46
49.45 49.99 50.11 50.39 51.09 52.11 52.72 55.18 56.65 58.20 59.25 59.22 58.85 58.83 58.24 56.58 55.77 55.21 53.48 52.37 50.91 50.77
45.98 46.35 47.94 49.04 49.90 50.30 50.60 51.53 53.71 55.06 55.81 55.69 55.50 55.98 56.36 55.61 53.53 53.10 50.91 50.07 49.98 49.70
44.31 44.93 45.58 47.31 48.70 49.03 49.11 49.22 50.29 51.95 53.42 52.90 51.72 51.59 51.50 50.18 49.46 48.83 48.11 48.30 48.41 48.35
43.74 44.36 44.97 45.54 46.63 48.32 48.04 47.83 48.46 49.28 48.88 48.88 48.79 48.36 48.20 48.15 47.87 47.44 47.13 47.82 47.53 47.45
43.35 43.57 43.48 44.01 44.64 45.30 46.81 46.76 46.46 46.24 46.52 45.73 46.29 47.52 48.10 47.54 46.70 46.36 45.92 45.12 45.08 44.11
42.18 42.18 42.43 43.03 43.37 43.80 44.14 45.62 45.15 44.85 45.08 44.64 44.30 46.98 47.82 47.49 45.43 44.98 44.40 43.20 43.17 42.62
40.18 40.26 41.09 41.42 41.61 42.00 42.94 43.26 44.17 44.02 44.10 43.54 44.30 46.48 46.76 46.78 42.27 41.63 39.79 39.02 39.45 39.25
38.82 38.64 39.28 40.09 41.21 42.12 42.45 43.37 44.39 44.55 43.87 42.35 42.21 45.64 45.83 44.40 38.65 37.87 38.36 39.34 39.95 39.91
37.35 37.74 38.39 39.99 40.10 40.92 41.62 42.17 43.50 43.61 43.61 43.66 42.53 44.98 45.67 43.54 40.02 38.59 38.80 39.44 39.61 42.16
35.57 35.32 35.77 36.34 37.79 39.98 40.62 41.39 41.62 42.01 42.14 42.71 43.23 43.17 45.79 45.44 41.18 39.69 38.24 37.61 37.58 39.21

GFSNIL_sfc_wetblb_093.txt.gz
Wetbulb
59.84 59.95 59.03 57.93 58.65 59.26 59.96 60.30 60.79 60.92 60.74 61.36 62.31 61.66 60.87 60.39 60.06 60.01 59.80 59.41 58.82 58.32
54.61 59.78 58.98 59.25 58.26 58.34 59.87 60.19 60.20 59.99 60.36 60.72 61.56 60.76 60.76 59.78 59.59 59.53 59.37 58.81 58.24 57.93
51.82 54.61 55.37 56.61 58.43 59.62 59.70 60.55 60.55 59.84 60.10 60.23 60.56 60.50 60.37 59.84 59.62 58.96 58.76 58.20 57.53 57.29
49.34 50.37 51.09 51.20 52.62 55.12 57.39 58.01 58.45 59.68 60.10 60.19 59.97 60.07 59.96 59.37 59.27 58.45 58.36 57.53 57.05 56.34
46.19 46.68 47.82 48.89 49.62 50.19 50.20 51.72 54.16 55.58 57.07 58.86 59.49 59.79 59.89 59.30 58.76 57.95 56.58 55.53 55.38 54.64
44.01 44.42 44.66 45.55 47.67 48.87 48.68 49.02 50.45 52.60 53.46 55.26 56.41 56.83 58.08 58.48 57.07 56.77 56.41 55.56 54.89 54.09
42.47 43.00 43.71 44.72 45.37 46.47 47.74 47.29 47.69 49.10 50.74 51.63 52.45 53.47 54.69 54.36 53.18 53.63 52.83 52.32 52.84 52.11
42.17 42.78 43.08 43.29 43.80 44.61 45.29 46.60 46.93 46.95 47.93 47.73 48.08 49.00 49.19 49.79 49.79 49.41 48.91 50.00 50.44 50.19
41.10 41.47 41.49 41.97 42.41 42.88 43.43 44.07 45.19 45.36 45.38 45.55 46.33 47.38 48.35 48.32 47.75 47.92 47.60 47.04 47.10 47.69
39.30 39.21 39.72 40.71 41.05 41.03 41.14 41.83 42.20 43.10 43.82 43.83 44.27 46.77 47.84 48.01 46.56 46.09 45.89 44.85 44.68 44.03
37.49 37.54 38.19 38.59 38.90 39.14 41.22 41.52 42.02 42.26 44.23 44.43 43.64 46.37 47.04 47.16 42.61 42.88 42.93 42.12 42.63 42.14
35.53 35.54 36.40 36.64 36.82 38.06 39.93 40.78 41.57 42.72 43.26 43.92 44.25 45.10 46.14 44.98 39.10 38.34 38.20 38.64 40.96 41.65
34.79 34.41 34.50 34.20 34.76 35.90 37.30 39.23 40.93 41.57 42.54 43.50 43.46 44.95 45.55 45.08 40.68 38.45 39.10 40.20 39.39 42.46
33.43 32.44 32.79 32.93 32.63 33.52 33.80 36.12 36.31 38.29 39.54 41.65 42.93 43.53 45.25 46.01 41.68 40.66 39.27 39.23 38.95 39.75

GFSNIL_sfc_wetblb_096.txt.gz
Wetbulb
55.55 59.78 58.96 59.00 59.44 59.40 59.44 59.57 60.40 60.67 60.63 60.57 61.09 61.14 61.18 60.67 60.63 60.61 60.53 60.23 58.62 58.27
53.23 56.54 58.54 58.58 58.36 58.29 59.50 60.17 59.84 59.91 60.02 60.58 60.68 60.96 61.28 60.53 59.68 59.43 59.69 59.78 59.63 58.24
51.02 52.02 53.56 55.24 56.00 57.76 58.75 59.26 59.61 59.66 59.75 59.75 59.88 60.24 60.44 59.72 59.31 58.98 59.05 58.81 58.28 58.53
46.86 48.37 50.20 50.49 50.75 51.21 53.53 55.22 56.70 57.76 58.73 59.41 59.51 59.72 59.65 59.65 59.27 58.61 58.39 57.94 57.49 57.19
44.72 45.18 45.25 45.76 47.15 48.87 48.72 49.64 50.09 52.60 54.76 57.24 58.91 59.33 59.20 58.96 59.10 58.46 57.83 57.78 57.00 56.52
42.81 42.98 43.16 43.86 44.75 45.76 46.64 47.50 47.99 49.24 50.85 52.24 53.73 56.27 57.95 59.06 58.97 58.55 58.31 58.01 56.66 56.78
41.12 41.79 42.23 42.82 43.22 43.80 44.57 45.05 45.98 46.75 47.81 48.97 49.79 51.13 52.39 54.68 54.95 55.60 56.49 56.44 56.12 56.25
39.73 40.29 40.76 41.30 41.88 42.54 42.75 43.06 43.97 44.75 45.36 45.85 46.49 47.52 48.08 49.93 51.34 52.01 52.13 51.53 52.34 52.72
38.27 38.73 38.75 39.16 39.77 40.31 40.60 40.93 41.63 42.02 42.91 43.32 45.07 47.03 47.86 47.65 48.01 48.66 49.16 49.20 49.49 50.00
36.20 36.16 36.68 37.66 38.13 38.12 37.99 38.66 38.78 39.88 41.05 42.03 42.93 46.46 47.44 47.51 45.63 46.35 46.88 46.45 46.16 45.82
34.53 34.33 34.77 35.26 34.95 35.40 36.80 37.55 38.48 38.93 40.11 41.82 43.62 46.10 46.63 46.78 43.28 41.91 42.27 43.20 43.97 43.90
33.20 32.70 32.71 32.86 33.00 33.61 34.48 35.16 36.64 38.32 38.68 40.08 41.76 44.30 45.41 45.42 42.05 39.79 38.63 38.95 41.43 43.58
32.67 32.11 31.29 31.35 31.79 32.62 32.72 33.85 35.40 36.71 36.27 39.64 39.79 42.60 44.19 44.83 42.80 40.33 39.91 40.23 38.58 43.11
31.57 30.46 30.09 29.90 30.72 30.18 30.53 31.12 31.06 32.68 33.00 34.38 38.34 39.67 42.57 43.87 43.32 41.80 40.53 40.15 39.91 40.18

GFSNIL_sfc_wetblb_099.txt.gz
Wetbulb
54.20 56.56 59.39 59.06 59.57 59.96 59.73 59.95 60.61 61.15 61.53 61.37 61.24 61.12 60.29 59.60 59.80 59.58 59.96 59.54 59.53 59.47
52.02 52.49 53.34 54.52 57.11 57.82 58.13 59.88 59.71 59.54 59.42 59.96 60.45 60.45 59.82 59.45 59.46 59.81 59.59 59.68 59.78 59.16
48.79 49.62 50.37 51.08 50.87 51.60 53.19 55.27 58.17 58.60 58.88 59.13 59.47 59.74 59.91 59.58 59.75 59.63 59.59 59.61 59.13 59.20
45.89 46.73 46.85 46.95 47.89 49.10 50.23 50.84 52.14 54.36 56.20 57.39 58.78 59.41 59.30 59.38 59.30 58.65 58.64 58.39 58.26 58.13
43.56 43.94 43.91 43.91 44.32 45.52 45.83 47.69 48.26 49.31 50.97 52.93 54.55 57.33 58.63 58.61 58.71 58.32 57.89 57.87 57.31 57.11
41.04 41.45 41.66 42.15 42.87 43.89 44.09 44.60 45.49 46.52 47.07 48.16 49.66 50.95 52.99 55.18 57.29 58.24 58.32 58.22 57.61 57.46
38.77 39.49 39.94 40.98 41.53 42.11 42.54 42.38 42.66 43.63 44.65 45.50 46.19 47.09 48.28 49.70 51.31 53.39 54.81 56.42 57.41 57.40
37.39 38.09 38.15 38.51 39.48 40.33 40.52 40.55 41.27 41.56 41.77 42.44 44.02 45.65 45.85 46.19 46.63 48.15 50.43 52.62 53.11 53.95
35.38 35.54 35.64 36.23 36.80 37.26 37.72 38.56 39.35 39.53 40.02 40.37 42.57 45.31 47.00 46.81 45.07 45.31 47.04 48.27 50.00 51.04
33.52 33.29 33.61 34.24 34.43 33.79 34.40 35.61 35.94 37.25 38.35 38.93 40.36 44.53 45.21 46.10 45.24 43.59 43.91 45.38 46.14 46.83
32.30 31.84 32.04 31.81 31.56 31.55 32.78 33.20 34.18 34.88 36.51 37.35 38.91 41.95 43.33 44.26 42.86 43.48 42.29 40.73 42.19 44.05
31.66 30.99 30.81 30.35 29.84 30.39 31.67 31.19 32.04 34.23 34.90 34.43 35.51 40.46 40.66 42.03 41.62 40.91 40.70 41.77 41.52 42.36
30.93 30.22 29.41 29.22 28.94 30.04 29.89 31.07 31.84 32.20 32.29 34.44 33.02 38.12 39.96 40.57 40.82 40.90 41.34 42.37 41.32 42.56
29.31 28.90 28.48 28.05 28.17 27.75 27.49 28.09 27.92 29.17 29.60 30.18 32.54 33.35 37.92 38.92 38.61 39.59 40.06 41.05 41.12 41.07

GFSNIL_sfc_wetblb_102.txt.gz
Wetbulb
52.65 53.25 54.18 54.31 57.77 58.35 57.86 59.14 60.52 60.82 61.05 61.09 61.41 61.24 60.73 60.07 59.99 59.95 59.89 59.81 59.58 59.37
49.75 50.11 50.86 51.37 52.04 52.25 52.85 53.77 55.47 58.91 59.32 59.73 60.74 60.93 60.72 60.02 59.09 59.47 59.26 59.27 59.24 59.10
46.89 47.56 47.51 47.83 47.62 48.56 50.10 50.84 51.41 52.57 54.64 56.77 58.29 59.28 59.54 59.30 59.38 58.90 58.81 58.82 58.43 58.82
43.87 44.72 44.93 44.46 44.81 45.48 46.70 47.40 48.27 49.32 50.76 52.09 53.62 55.36 57.63 58.74 58.77 58.48 58.28 58.34 58.25 58.23
41.57 41.87 42.15 42.47 42.92 43.63 43.34 44.38 44.78 45.88 46.77 47.62 48.66 50.05 51.77 52.71 55.34 58.04 57.68 57.88 57.67 57.58
38.83 38.82 39.10 40.33 41.26 41.87 41.83 41.83 42.39 42.99 43.07 44.02 45.05 46.27 47.27 48.27 49.31 51.69 52.93 56.37 57.30 57.45
35.97 36.72 37.10 37.77 38.29 39.07 39.84 39.36 40.21 40.83 40.98 41.62 42.44 44.39 44.95 45.73 45.87 46.34 47.80 50.16 52.49 53.97
35.06 35.29 35.08 35.24 35.53 35.90 36.21 36.84 38.02 38.50 38.88 39.79 40.45 42.23 43.76 44.22 44.63 44.49 44.98 46.24 48.27 50.79
33.47 33.29 32.39 33.07 33.65 33.45 33.77 34.16 35.02 34.98 36.24 37.57 39.50 41.84 42.21 43.40 42.67 43.40 43.65 43.75 45.12 46.45
31.45 31.19 31.12 31.25 30.96 30.48 30.77 32.32 32.17 32.89 34.10 35.48 36.54 40.34 40.99 41.10 41.42 41.60 42.04 41.76 42.22 43.19
30.60 30.28 30.54 30.22 29.56 28.99 29.72 30.33 30.34 31.11 32.54 33.46 34.52 38.53 39.35 40.56 38.74 40.02 40.56 39.60 40.46 41.65
29.23 28.84 28.87 28.33 28.17 28.37 29.03 28.76 28.94 30.66 31.04 30.40 31.27 36.64 37.99 37.73 35.85 37.36 38.14 39.67 40.51 40.62
28.38 27.62 26.60 26.29 26.09 26.72 27.81 28.26 29.00 29.14 29.63 32.19 30.17 34.72 37.05 36.22 33.86 33.72 35.96 39.00 39.40 41.99
26.31 25.26 25.57 25.28 25.81 25.48 26.43 26.97 25.80 27.08 27.45 28.04 29.39 30.48 36.12 36.28 32.96 32.75 33.00 34.60 37.60 39.41

GFSNIL_sfc_wetblb_105.txt.gz
Wetbulb
50.47 50.58 50.17 50.64 51.61 51.88 52.19 53.19 54.51 55.40 59.11 60.38 60.83 60.95 61.07 60.86 60.60 60.66 60.09 59.59 59.23 59.18
47.57 47.33 46.61 47.14 48.04 49.10 50.00 51.12 51.81 52.64 53.47 54.57 55.74 57.39 59.86 60.42 59.95 59.97 59.77 59.76 59.75 59.36
45.03 45.64 45.78 45.55 45.17 45.57 46.55 46.94 47.89 48.98 50.43 51.12 51.83 52.18 54.13 57.09 59.21 58.95 59.63 59.74 59.65 59.53
42.16 43.21 43.69 43.34 43.16 43.18 43.90 43.87 44.48 45.64 46.59 47.13 48.01 49.24 50.08 51.28 52.51 53.31 57.14 58.40 58.28 58.28
38.97 39.30 39.64 40.01 40.42 41.27 40.85 41.60 42.15 42.55 42.84 43.53 44.60 46.66 46.88 47.46 48.43 48.64 50.11 51.54 55.07 57.45
37.32 37.18 37.09 37.89 38.30 38.91 39.16 39.22 40.00 40.63 40.58 41.03 41.73 43.63 44.95 45.55 45.83 46.35 47.11 48.23 49.27 50.93
35.77 36.01 36.15 36.66 36.67 36.88 37.78 37.28 37.70 38.05 38.63 39.61 40.38 41.31 42.45 43.06 43.87 44.60 45.28 46.34 47.28 48.44
35.20 35.50 34.90 34.84 35.12 35.12 35.45 36.25 36.20 36.11 36.52 37.73 38.88 39.53 40.42 40.72 41.06 41.63 42.36 44.01 45.15 46.36
33.93 34.03 33.83 33.85 33.46 33.47 33.60 34.42 34.26 34.36 34.68 35.48 36.28 38.81 39.94 39.95 39.45 39.50 39.89 40.14 42.24 43.82
32.13 31.84 32.12 32.27 32.02 31.42 31.66 32.96 32.94 32.98 33.49 33.92 34.84 37.66 38.66 39.07 38.71 38.20 38.60 38.95 39.71 40.80
30.86 30.56 30.98 30.91 30.52 30.76 31.30 31.42 31.75 32.25 32.92 33.28 34.08 36.70 37.46 37.98 37.20 37.00 37.62 38.94 39.42 40.00
29.89 29.47 29.58 29.29 29.31 29.78 29.88 30.29 30.25 31.20 31.70 31.93 32.79 35.79 36.56 36.78 36.02 35.15 35.15 36.34 37.20 38.52
29.42 29.04 28.35 28.56 28.40 29.20 29.11 28.99 30.14 29.71 30.87 31.80 32.31 33.82 35.73 35.99 35.03 33.27 33.48 34.64 35.41 37.40
28.32 27.32 27.29 27.50 27.46 27.42 27.36 27.81 27.58 28.39 29.83 29.88 31.60 32.79 35.51 35.96 34.48 33.43 32.95 32.78 32.99 34.21

GFSNIL_sfc_wetblb_108.txt.gz
Wetbulb
50.26 49.68 48.96 48.88 49.44 49.46 49.84 50.75 51.18 52.21 53.48 54.43 55.75 56.32 57.31 59.21 61.07 61.56 60.97 60.61 60.28 60.15
47.62 46.64 46.10 46.42 46.87 47.29 47.02 47.77 48.25 49.23 50.11 50.92 51.90 51.90 53.45 55.00 55.93 59.16 60.23 60.15 60.20 59.90
44.09 45.11 44.88 44.40 43.66 43.98 44.28 44.60 45.49 45.97 46.54 46.97 47.93 49.50 50.17 50.75 51.57 52.16 53.33 56.05 58.26 59.35
40.35 41.34 41.83 42.33 41.45 41.58 42.29 42.82 42.74 43.15 43.62 43.99 45.02 46.87 47.19 47.79 48.69 48.63 49.08 50.75 51.47 52.02
38.19 38.22 38.40 38.70 38.93 40.03 39.24 39.97 40.19 40.60 41.14 41.67 42.23 43.81 44.49 44.93 46.16 46.15 46.56 47.48 48.47 48.97
38.23 37.99 37.33 37.20 37.75 38.62 39.13 39.00 39.54 39.92 39.84 40.12 41.15 41.81 42.52 42.34 42.87 43.14 44.01 45.26 45.80 46.79
36.99 37.10 37.27 37.68 37.72 37.45 38.05 37.80 37.69 37.95 38.25 38.81 39.25 39.94 40.62 40.86 41.35 41.63 41.82 43.06 44.19 44.95
37.58 37.64 37.46 37.05 36.75 36.59 36.81 36.94 37.10 36.78 37.20 37.58 37.99 38.06 38.72 39.41 39.61 40.00 39.97 40.98 41.62 43.02
36.10 35.68 35.41 35.04 34.67 34.77 34.38 34.68 35.64 35.72 35.48 35.06 36.19 37.18 38.32 38.45 37.89 38.38 38.05 38.17 39.62 40.59
34.54 34.38 34.46 34.83 34.72 34.40 34.24 34.80 34.65 34.85 35.09 35.20 36.28 37.02 37.84 38.12 37.63 37.55 37.56 37.50 37.76 38.09
33.84 33.54 33.98 33.88 33.68 33.77 34.02 33.65 33.65 33.82 34.28 34.60 35.33 36.28 36.99 37.38 37.31 37.36 37.34 37.26 37.32 37.23
33.18 32.67 32.74 32.44 32.53 32.82 32.69 32.59 32.72 33.14 33.08 33.24 34.18 35.49 36.01 36.24 36.16 36.01 35.95 36.45 36.76 36.81
32.74 32.04 31.50 31.65 31.44 31.97 32.14 31.80 32.38 32.21 33.16 33.37 33.48 34.97 35.42 36.09 35.51 34.51 34.93 35.93 36.28 36.28
31.92 31.20 31.19 31.39 31.66 31.36 31.17 31.18 31.42 31.70 32.86 33.48 34.48 34.91 35.39 35.74 34.88 34.23 33.82 34.00 33.95 35.04

GFSNIL_sfc_wetblb_111.txt.gz
Wetbulb
48.78 48.64 48.53 48.63 48.96 48.51 48.58 48.94 49.38 50.45 51.32 51.32 51.78 52.43 53.26 55.82 55.48 55.05 59.24 60.39 60.92 60.44
46.87 45.61 44.76 45.04 45.60 45.13 45.33 45.38 46.20 47.18 47.33 47.86 48.63 49.69 50.48 51.29 50.85 51.51 53.22 53.85 53.13 55.97
42.19 43.01 43.43 43.02 41.56 41.72 42.54 43.08 43.72 43.89 44.29 44.78 45.70 47.26 47.75 48.35 48.89 49.00 49.73 50.32 50.29 51.58
39.07 39.49 39.55 39.52 40.08 40.13 40.73 40.59 40.51 41.09 41.51 42.10 42.24 43.65 44.50 44.03 45.34 45.29 46.17 47.40 47.63 48.46
38.73 38.58 38.12 38.17 38.04 39.25 39.43 40.05 39.59 39.66 39.84 39.97 41.00 41.76 41.82 41.27 42.24 42.28 42.28 43.24 44.67 45.54
38.71 38.45 38.02 38.30 37.93 37.93 37.89 38.40 38.40 38.47 38.09 38.33 39.04 39.77 40.07 40.21 40.63 41.40 41.99 42.31 42.70 43.70
38.10 37.99 37.76 37.77 37.38 36.81 36.85 36.60 36.83 36.94 36.96 37.29 37.57 38.21 38.13 38.40 38.71 39.28 40.26 41.05 41.38 41.20
37.32 37.07 36.76 36.12 35.89 35.97 35.77 35.87 36.10 36.12 36.43 36.68 36.64 37.06 36.76 37.25 37.26 37.36 37.77 38.82 39.09 40.05
36.42 36.02 35.74 35.66 35.42 35.49 35.40 35.47 35.47 35.20 35.25 35.24 35.84 38.29 37.76 37.60 36.50 36.65 36.83 36.63 37.47 38.32
35.35 34.95 35.01 35.18 34.97 34.69 34.45 34.79 34.30 34.35 34.57 34.20 35.05 37.21 37.33 37.61 36.27 36.09 36.60 36.83 36.78 36.68
34.61 34.13 34.43 34.22 33.84 33.77 33.78 33.34 33.26 33.62 33.93 33.90 34.44 36.31 36.47 36.97 36.07 35.97 36.32 36.68 36.19 35.91
34.02 33.17 33.06 32.49 32.48 32.73 32.54 32.52 32.80 33.23 33.16 33.13 33.76 35.64 35.75 35.77 35.36 35.40 35.21 36.24 36.51 36.29
33.53 32.55 31.72 31.75 31.71 32.40 32.49 32.23 32.85 32.50 33.59 34.16 33.53 35.77 35.82 35.48 34.54 33.29 33.88 35.00 35.52 37.29
32.29 31.55 31.64 31.66 32.13 31.91 31.79 31.93 32.04 32.27 33.19 33.57 34.39 34.29 35.68 35.90 34.18 33.50 32.86 32.94 33.43 34.81

GFSNIL_sfc_wetblb_114.txt.gz
Wetbulb
45.64 45.26 45.15 44.59 44.52 44.49 45.40 45.55 46.67 46.79 47.64 48.33 49.41 50.29 51.48 52.30 51.19 51.57 52.44 52.78 52.71 53.54
43.59 43.34 42.52 42.03 42.53 42.78 42.43 43.28 43.80 44.18 44.71 45.35 46.79 47.59 48.66 49.05 48.53 49.70 49.94 50.63 50.14 50.71
39.33 39.92 40.40 40.74 39.92 40.04 39.32 39.74 40.43 40.89 42.30 42.41 43.54 44.97 45.39 45.39 46.67 46.04 47.45 48.22 47.69 48.18
38.00 38.66 38.11 37.28 37.81 38.17 39.63 39.16 39.32 39.78 40.54 40.59 41.24 42.76 42.83 42.50 42.94 42.69 43.24 44.37 44.37 45.11
38.07 37.89 37.47 36.95 36.74 37.36 36.74 37.28 36.08 35.64 35.97 37.31 38.11 39.27 39.71 39.05 40.00 40.82 40.65 40.90 41.76 42.04
36.77 34.71 34.28 34.97 35.75 35.70 35.35 35.38 35.33 34.87 34.85 34.99 35.81 36.01 37.17 37.26 37.05 37.13 38.54 39.57 39.87 40.33
33.54 33.23 32.82 33.24 32.75 32.72 32.92 33.03 33.18 33.70 34.85 35.48 35.68 36.00 36.45 36.60 36.28 36.34 36.78 37.98 38.16 38.35
32.39 32.42 32.05 31.80 32.13 33.45 33.83 33.57 33.46 33.98 34.15 34.14 34.45 35.89 35.33 35.67 35.33 34.83 34.98 36.28 37.36 37.59
32.05 31.62 30.94 30.83 30.68 30.92 30.90 30.85 31.19 30.97 31.18 30.76 34.07 36.94 37.83 36.80 34.85 34.72 34.23 34.46 35.33 36.31
31.62 31.08 30.72 30.76 30.33 29.56 28.66 29.02 28.82 29.27 30.13 29.95 30.48 36.49 37.30 37.24 34.08 33.48 33.22 33.71 34.12 34.63
31.23 30.42 30.43 29.71 28.93 28.07 28.23 27.88 28.30 28.81 29.41 29.34 31.61 36.12 36.60 36.77 33.28 32.94 32.99 33.37 33.24 32.83
30.80 29.68 29.17 28.03 27.40 27.63 27.63 27.59 27.94 29.47 29.05 28.87 29.58 35.54 36.30 35.06 31.97 32.17 31.30 32.60 32.28 32.81
31.60 30.52 29.27 28.73 27.97 28.93 28.99 29.10 30.28 30.11 30.20 32.24 30.65 34.67 35.92 34.97 32.92 30.92 31.28 31.46 32.34 35.54
29.23 28.17 28.38 28.08 28.58 29.02 29.07 29.55 29.18 29.18 29.07 28.97 30.46 30.27 35.66 35.93 32.25 30.86 30.70 30.47 30.64 31.74

GFSNIL_sfc_wetblb_117.txt.gz
Wetbulb
43.73 42.52 41.70 41.68 42.14 41.01 42.17 42.09 43.28 44.19 44.54 46.34 47.37 48.49 50.14 49.29 49.97 50.54 50.29 49.33 49.80 50.91
39.63 40.43 40.49 41.01 41.33 40.75 40.46 40.89 41.42 42.34 42.77 43.20 43.73 44.91 44.93 46.39 45.74 47.67 48.56 48.19 48.01 47.86
38.57 38.85 38.54 38.31 37.55 38.14 38.68 39.44 39.61 39.77 40.11 40.68 41.63 42.93 42.62 41.97 42.16 42.01 44.13 44.95 44.88 46.22
37.66 38.00 37.71 36.90 36.65 35.00 36.05 37.09 36.77 36.73 37.10 37.17 37.65 38.89 39.04 39.30 39.80 40.61 41.67 41.52 42.61 42.30
35.34 36.15 35.99 35.55 35.21 35.49 35.12 35.91 35.88 35.92 34.51 34.68 34.76 34.71 35.08 35.22 36.80 36.31 36.19 38.29 40.22 39.88
31.51 30.99 30.18 30.21 30.64 31.18 31.09 31.46 32.19 33.44 32.91 32.75 33.38 34.16 34.33 34.73 35.26 35.26 35.71 36.62 36.86 37.34
30.05 29.59 29.43 29.87 30.03 30.35 30.57 30.11 30.55 31.13 31.65 32.22 32.58 33.93 34.37 34.44 33.84 34.03 34.80 36.08 37.19 37.21
30.47 30.23 29.65 29.39 29.45 29.87 29.98 29.71 29.94 30.24 30.54 30.82 31.96 34.24 33.68 34.28 34.58 34.33 34.20 34.99 35.70 36.08
30.86 30.49 29.62 29.25 28.80 28.70 28.25 28.07 28.52 28.52 28.94 28.67 32.58 36.03 37.28 35.99 32.86 33.28 32.92 32.88 34.03 35.34
30.85 30.68 30.59 30.29 29.50 28.33 27.32 27.11 26.91 27.31 28.09 27.94 28.86 36.30 37.00 37.14 32.54 31.99 31.96 32.39 32.64 33.10
30.14 29.20 29.17 28.36 27.43 27.05 28.36 28.44 28.27 28.13 28.40 27.95 29.96 35.77 36.54 37.02 31.69 31.47 31.65 31.77 31.29 30.72
29.45 28.44 27.85 26.49 25.71 26.39 26.71 26.70 27.02 28.90 29.42 29.52 30.23 35.30 36.30 34.85 31.17 31.12 30.66 31.55 31.19 32.26
28.93 27.69 25.99 25.57 25.03 25.86 26.46 27.16 28.13 28.26 28.53 31.23 28.28 33.94 35.72 34.82 31.55 30.87 31.30 32.16 32.30 35.10
27.46 26.10 25.87 25.04 24.97 25.08 25.13 25.24 24.83 25.74 25.88 26.83 28.81 28.78 34.44 34.63 31.06 30.07 30.34 31.25 30.91 31.45